Wetterdaten: Samstag, 31.07.2021
Datum Zeit Temp. Aussen Temp. o. S. Temp +5cm Feuchte Auss Luftdruck Regen Sonnenschein Regendauer Solar Windben Empfang
31.07.2021 00:00 17,7 C 16,7 C 14,5 C 73 % 1007,1 hPa 0,0 l/m 0 min 0 min 0 W/m 29,0 km/h (5 Bft) 91,49 %
31.07.2021 00:02 17,7 C 16,7 C 14,5 C 73 % 1007,1 hPa 0,0 l/m 0 min 0 min 0 W/m 25,7 km/h (4 Bft) 95,65 %
31.07.2021 00:04 17,7 C 16,7 C 14,5 C 73 % 1007,1 hPa 0,0 l/m 0 min 0 min 0 W/m 22,5 km/h (4 Bft) 97,87 %
31.07.2021 00:08 17,6 C 16,7 C 14,5 C 73 % 1007,0 hPa 0,0 l/m 0 min 0 min 0 W/m 22,5 km/h (4 Bft) 97,87 %
31.07.2021 00:10 17,6 C 16,7 C 14,5 C 73 % 1007,0 hPa 0,0 l/m 0 min 0 min 0 W/m 16,1 km/h (3 Bft) 97,87 %
31.07.2021 00:12 17,6 C 16,7 C 14,5 C 73 % 1007,0 hPa 0,0 l/m 0 min 0 min 0 W/m 19,3 km/h (3 Bft) 95,74 %
31.07.2021 00:14 17,6 C 16,7 C 14,5 C 74 % 1007,0 hPa 0,0 l/m 0 min 0 min 0 W/m 25,7 km/h (4 Bft) 97,87 %
31.07.2021 00:16 17,5 C 16,7 C 14,5 C 74 % 1007,0 hPa 0,0 l/m 0 min 0 min 0 W/m 12,9 km/h (3 Bft) 95,74 %
31.07.2021 00:18 17,5 C 16,7 C 14,5 C 74 % 1007,0 hPa 0,0 l/m 0 min 0 min 0 W/m 22,5 km/h (4 Bft) 97,83 %
31.07.2021 00:20 17,5 C 16,7 C 14,5 C 74 % 1007,1 hPa 0,0 l/m 0 min 0 min 0 W/m 12,9 km/h (3 Bft) 97,87 %
31.07.2021 00:22 17,5 C 16,7 C 14,5 C 74 % 1007,0 hPa 0,0 l/m 0 min 0 min 0 W/m 22,5 km/h (4 Bft) 95,74 %
31.07.2021 00:24 17,4 C 16,7 C 14,5 C 74 % 1007,0 hPa 0,0 l/m 0 min 0 min 0 W/m 16,1 km/h (3 Bft) 97,87 %
31.07.2021 00:26 17,4 C 16,7 C 14,5 C 74 % 1007,0 hPa 0,0 l/m 0 min 0 min 0 W/m 19,3 km/h (3 Bft) 97,87 %
31.07.2021 00:28 17,4 C 16,7 C 14,5 C 74 % 1007,0 hPa 0,0 l/m 0 min 0 min 0 W/m 22,5 km/h (4 Bft) 97,87 %
31.07.2021 00:30 17,4 C 16,7 C 14,5 C 74 % 1007,0 hPa 0,0 l/m 0 min 0 min 0 W/m 22,5 km/h (4 Bft) 97,83 %
31.07.2021 00:32 17,4 C 16,7 C 14,5 C 74 % 1007,0 hPa 0,0 l/m 0 min 0 min 0 W/m 19,3 km/h (3 Bft) 95,74 %
31.07.2021 00:34 17,3 C 16,7 C 14,5 C 74 % 1007,0 hPa 0,0 l/m 0 min 0 min 0 W/m 22,5 km/h (4 Bft) 95,74 %
31.07.2021 00:36 17,3 C 16,7 C 14,5 C 74 % 1007,0 hPa 0,0 l/m 0 min 0 min 0 W/m 29,0 km/h (5 Bft) 97,87 %
31.07.2021 00:38 17,3 C 16,7 C 14,5 C 74 % 1007,0 hPa 0,0 l/m 0 min 0 min 0 W/m 22,5 km/h (4 Bft) 97,92 %
31.07.2021 00:40 17,3 C 16,1 C 14,5 C 74 % 1006,9 hPa 0,0 l/m 0 min 0 min 0 W/m 32,2 km/h (5 Bft) 97,83 %
31.07.2021 00:42 17,2 C 16,1 C 14,5 C 75 % 1006,9 hPa 0,0 l/m 0 min 0 min 0 W/m 16,1 km/h (3 Bft) 97,22 %
31.07.2021 00:44 17,2 C 16,1 C 14,5 C 75 % 1006,9 hPa 0,0 l/m 0 min 0 min 0 W/m 22,5 km/h (4 Bft) 100,00 %
31.07.2021 00:46 17,1 C 16,1 C 14,5 C 75 % 1006,9 hPa 0,0 l/m 0 min 0 min 0 W/m 16,1 km/h (3 Bft) 100,00 %
31.07.2021 00:48 17,1 C 16,1 C 14,5 C 75 % 1006,9 hPa 0,0 l/m 0 min 0 min 0 W/m 22,5 km/h (4 Bft) 100,00 %
31.07.2021 00:50 17,1 C 16,1 C 14,5 C 75 % 1006,9 hPa 0,0 l/m 0 min 0 min 0 W/m 29,0 km/h (5 Bft) 95,74 %
31.07.2021 00:52 17,1 C 16,1 C 14,5 C 75 % 1006,9 hPa 0,0 l/m 0 min 0 min 0 W/m 22,5 km/h (4 Bft) 100,00 %
31.07.2021 00:54 17,1 C 16,1 C 14,5 C 75 % 1006,9 hPa 0,0 l/m 0 min 0 min 0 W/m 19,3 km/h (3 Bft) 95,74 %
31.07.2021 00:56 17,0 C 16,1 C 14,5 C 75 % 1006,9 hPa 0,0 l/m 0 min 0 min 0 W/m 16,1 km/h (3 Bft) 97,83 %
31.07.2021 00:58 17,0 C 16,1 C 14,5 C 75 % 1006,9 hPa 0,0 l/m 0 min 0 min 0 W/m 19,3 km/h (3 Bft) 95,74 %
31.07.2021 01:00 17,0 C 16,1 C 14,5 C 75 % 1006,9 hPa 0,0 l/m 0 min 0 min 0 W/m 25,7 km/h (4 Bft) 97,87 %
31.07.2021 01:02 17,0 C 16,1 C 14,5 C 75 % 1006,9 hPa 0,0 l/m 0 min 0 min 0 W/m 32,2 km/h (5 Bft) 97,87 %
31.07.2021 01:04 17,0 C 16,1 C 14,5 C 75 % 1006,9 hPa 0,0 l/m 0 min 0 min 0 W/m 16,1 km/h (3 Bft) 97,87 %
31.07.2021 01:06 17,0 C 16,1 C 14,5 C 75 % 1006,9 hPa 0,0 l/m 0 min 0 min 0 W/m 25,7 km/h (4 Bft) 97,87 %
31.07.2021 01:08 17,0 C 16,1 C 14,5 C 75 % 1007,0 hPa 0,0 l/m 0 min 0 min 0 W/m 19,3 km/h (3 Bft) 95,65 %
31.07.2021 01:10 17,0 C 16,1 C 14,5 C 75 % 1007,0 hPa 0,0 l/m 0 min 0 min 0 W/m 16,1 km/h (3 Bft) 95,74 %
31.07.2021 01:12 17,0 C 16,1 C 14,5 C 75 % 1007,0 hPa 0,0 l/m 0 min 0 min 0 W/m 25,7 km/h (4 Bft) 95,74 %
31.07.2021 01:14 17,0 C 16,1 C 14,5 C 75 % 1007,0 hPa 0,0 l/m 0 min 0 min 0 W/m 16,1 km/h (3 Bft) 95,74 %
31.07.2021 01:16 17,0 C 16,1 C 14,5 C 75 % 1007,0 hPa 0,0 l/m 0 min 0 min 0 W/m 25,7 km/h (4 Bft) 95,74 %
31.07.2021 01:18 17,0 C 16,1 C 14,5 C 75 % 1007,0 hPa 0,0 l/m 0 min 0 min 0 W/m 19,3 km/h (3 Bft) 91,49 %
31.07.2021 01:20 17,0 C 16,1 C 14,5 C 75 % 1007,0 hPa 0,0 l/m 0 min 0 min 0 W/m 16,1 km/h (3 Bft) 95,65 %
31.07.2021 01:22 17,0 C 16,1 C 14,5 C 75 % 1007,0 hPa 0,0 l/m 0 min 0 min 0 W/m 22,5 km/h (4 Bft) 93,62 %
31.07.2021 01:24 16,9 C 16,1 C 14,5 C 75 % 1007,0 hPa 0,0 l/m 0 min 0 min 0 W/m 25,7 km/h (4 Bft) 95,74 %
31.07.2021 01:26 16,9 C 16,1 C 14,5 C 75 % 1007,0 hPa 0,0 l/m 0 min 0 min 0 W/m 19,3 km/h (3 Bft) 97,87 %
31.07.2021 01:28 16,9 C 16,1 C 14,5 C 75 % 1007,1 hPa 0,0 l/m 0 min 0 min 0 W/m 19,3 km/h (3 Bft) 95,74 %
31.07.2021 01:30 16,9 C 16,1 C 14,5 C 75 % 1007,0 hPa 0,0 l/m 0 min 0 min 0 W/m 16,1 km/h (3 Bft) 95,74 %
31.07.2021 01:32 16,9 C 16,1 C 13,9 C 75 % 1007,0 hPa 0,0 l/m 0 min 0 min 0 W/m 19,3 km/h (3 Bft) 95,74 %
31.07.2021 01:34 16,9 C 16,1 C 13,9 C 75 % 1007,0 hPa 0,0 l/m 0 min 0 min 0 W/m 19,3 km/h (3 Bft) 94,29 %
31.07.2021 01:36 16,9 C 16,1 C 13,9 C 76 % 1007,0 hPa 0,0 l/m 0 min 0 min 0 W/m 19,3 km/h (3 Bft) 94,92 %
31.07.2021 01:38 16,8 C 16,1 C 13,9 C 75 % 1007,0 hPa 0,0 l/m 0 min 0 min 0 W/m 29,0 km/h (5 Bft) 95,74 %
31.07.2021 01:40 16,8 C 16,1 C 13,9 C 75 % 1007,0 hPa 0,0 l/m 0 min 0 min 0 W/m 22,5 km/h (4 Bft) 95,74 %
31.07.2021 01:42 16,8 C 16,1 C 13,9 C 76 % 1007,0 hPa 0,0 l/m 0 min 0 min 0 W/m 16,1 km/h (3 Bft) 93,48 %
31.07.2021 01:44 16,8 C 16,1 C 13,9 C 75 % 1006,9 hPa 0,0 l/m 0 min 0 min 0 W/m 22,5 km/h (4 Bft) 95,74 %
31.07.2021 01:46 16,8 C 16,1 C 13,9 C 75 % 1006,9 hPa 0,0 l/m 0 min 0 min 0 W/m 35,4 km/h (5 Bft) 95,74 %
31.07.2021 01:48 16,8 C 16,1 C 13,9 C 75 % 1006,9 hPa 0,0 l/m 0 min 0 min 0 W/m 19,3 km/h (3 Bft) 95,74 %
31.07.2021 01:50 16,8 C 16,1 C 13,9 C 76 % 1007,0 hPa 0,0 l/m 0 min 0 min 0 W/m 19,3 km/h (3 Bft) 95,74 %
31.07.2021 01:52 16,8 C 16,1 C 13,9 C 76 % 1007,0 hPa 0,0 l/m 0 min 0 min 0 W/m 19,3 km/h (3 Bft) 93,62 %
31.07.2021 01:54 16,8 C 16,1 C 13,9 C 76 % 1007,0 hPa 0,0 l/m 0 min 0 min 0 W/m 25,7 km/h (4 Bft) 95,65 %
31.07.2021 01:56 16,8 C 16,1 C 13,9 C 76 % 1007,0 hPa 0,0 l/m 0 min 0 min 0 W/m 19,3 km/h (3 Bft) 97,87 %
31.07.2021 01:58 16,8 C 16,1 C 13,9 C 76 % 1006,9 hPa 0,0 l/m 0 min 0 min 0 W/m 19,3 km/h (3 Bft) 97,87 %
31.07.2021 02:00 16,8 C 16,1 C 13,9 C 76 % 1006,9 hPa 0,0 l/m 0 min 0 min 0 W/m 19,3 km/h (3 Bft) 95,74 %
31.07.2021 02:02 16,8 C 16,1 C 13,9 C 76 % 1007,0 hPa 0,0 l/m 0 min 0 min 0 W/m 16,1 km/h (3 Bft) 95,74 %
31.07.2021 02:04 16,8 C 16,1 C 14,5 C 76 % 1006,9 hPa 0,0 l/m 0 min 0 min 0 W/m 25,7 km/h (4 Bft) 97,92 %
31.07.2021 02:06 16,8 C 16,1 C 14,5 C 76 % 1006,9 hPa 0,0 l/m 0 min 0 min 0 W/m 12,9 km/h (3 Bft) 95,65 %
31.07.2021 02:08 16,8 C 16,1 C 14,5 C 76 % 1006,9 hPa 0,0 l/m 0 min 0 min 0 W/m 22,5 km/h (4 Bft) 97,87 %
31.07.2021 02:10 16,8 C 16,1 C 14,5 C 76 % 1006,9 hPa 0,0 l/m 0 min 0 min 0 W/m 19,3 km/h (3 Bft) 100,00 %
31.07.2021 02:12 16,8 C 16,1 C 14,5 C 76 % 1006,9 hPa 0,0 l/m 0 min 0 min 0 W/m 16,1 km/h (3 Bft) 97,87 %
31.07.2021 02:14 16,8 C 16,1 C 14,5 C 76 % 1006,8 hPa 0,0 l/m 0 min 0 min 0 W/m 22,5 km/h (4 Bft) 97,87 %
31.07.2021 02:16 16,8 C 16,1 C 14,5 C 76 % 1006,9 hPa 0,0 l/m 0 min 0 min 0 W/m 22,5 km/h (4 Bft) 100,00 %
31.07.2021 02:18 16,8 C 16,1 C 14,5 C 76 % 1006,9 hPa 0,0 l/m 0 min 0 min 0 W/m 29,0 km/h (5 Bft) 97,83 %
31.07.2021 02:20 16,8 C 16,1 C 14,5 C 76 % 1006,9 hPa 0,0 l/m 0 min 0 min 0 W/m 12,9 km/h (3 Bft) 100,00 %
31.07.2021 02:22 16,9 C 16,1 C 14,5 C 75 % 1006,9 hPa 0,0 l/m 0 min 0 min 0 W/m 38,6 km/h (5 Bft) 97,87 %
31.07.2021 02:24 16,9 C 16,1 C 14,5 C 76 % 1006,9 hPa 0,0 l/m 0 min 0 min 0 W/m 22,5 km/h (4 Bft) 100,00 %
31.07.2021 02:26 16,9 C 16,1 C 14,5 C 75 % 1006,9 hPa 0,0 l/m 0 min 0 min 0 W/m 22,5 km/h (4 Bft) 100,00 %
31.07.2021 02:28 16,9 C 16,1 C 14,5 C 76 % 1006,9 hPa 0,0 l/m 0 min 0 min 0 W/m 25,7 km/h (4 Bft) 97,87 %
31.07.2021 02:30 16,9 C 16,1 C 14,5 C 75 % 1006,9 hPa 0,0 l/m 0 min 0 min 0 W/m 19,3 km/h (3 Bft) 100,00 %
31.07.2021 02:32 16,9 C 16,1 C 14,5 C 75 % 1006,9 hPa 0,0 l/m 0 min 0 min 0 W/m 29,0 km/h (5 Bft) 100,00 %
31.07.2021 02:34 16,9 C 16,1 C 14,5 C 76 % 1006,9 hPa 0,0 l/m 0 min 0 min 0 W/m 25,7 km/h (4 Bft) 95,74 %
31.07.2021 02:36 16,9 C 16,1 C 14,5 C 75 % 1006,9 hPa 0,0 l/m 0 min 0 min 0 W/m 35,4 km/h (5 Bft) 100,00 %
31.07.2021 02:38 16,9 C 16,1 C 14,5 C 76 % 1006,9 hPa 0,0 l/m 0 min 0 min 0 W/m 22,5 km/h (4 Bft) 100,00 %
31.07.2021 02:40 16,9 C 16,1 C 14,5 C 76 % 1006,8 hPa 0,0 l/m 0 min 0 min 0 W/m 22,5 km/h (4 Bft) 100,00 %
31.07.2021 02:42 17,0 C 16,1 C 14,5 C 76 % 1006,8 hPa 0,0 l/m 0 min 0 min 0 W/m 38,6 km/h (5 Bft) 100,00 %
31.07.2021 02:44 17,0 C 16,1 C 14,5 C 76 % 1006,9 hPa 0,0 l/m 0 min 0 min 0 W/m 19,3 km/h (3 Bft) 100,00 %
31.07.2021 02:46 17,0 C 16,1 C 14,5 C 76 % 1006,8 hPa 0,0 l/m 0 min 0 min 0 W/m 25,7 km/h (4 Bft) 100,00 %
31.07.2021 02:48 16,9 C 16,1 C 14,5 C 76 % 1006,9 hPa 0,0 l/m 0 min 0 min 0 W/m 12,9 km/h (3 Bft) 100,00 %
31.07.2021 02:50 16,9 C 16,1 C 14,5 C 76 % 1006,8 hPa 0,0 l/m 0 min 0 min 0 W/m 19,3 km/h (3 Bft) 97,87 %
31.07.2021 02:52 17,0 C 16,1 C 14,5 C 76 % 1006,8 hPa 0,0 l/m 0 min 0 min 0 W/m 25,7 km/h (4 Bft) 97,83 %
31.07.2021 02:54 16,9 C 16,1 C 14,5 C 76 % 1006,9 hPa 0,0 l/m 0 min 0 min 0 W/m 19,3 km/h (3 Bft) 97,87 %
31.07.2021 02:56 17,0 C 16,1 C 14,5 C 76 % 1006,9 hPa 0,0 l/m 0 min 0 min 0 W/m 19,3 km/h (3 Bft) 95,74 %
31.07.2021 02:58 17,0 C 16,1 C 14,5 C 76 % 1006,9 hPa 0,0 l/m 0 min 0 min 0 W/m 22,5 km/h (4 Bft) 97,87 %
31.07.2021 03:00 17,0 C 16,1 C 14,5 C 76 % 1006,8 hPa 0,0 l/m 0 min 0 min 0 W/m 22,5 km/h (4 Bft) 97,87 %
31.07.2021 03:02 17,0 C 16,1 C 14,5 C 76 % 1006,9 hPa 0,0 l/m 0 min 0 min 0 W/m 29,0 km/h (5 Bft) 98,11 %
31.07.2021 03:04 17,0 C 16,1 C 14,5 C 76 % 1006,9 hPa 0,0 l/m 0 min 0 min 0 W/m 19,3 km/h (3 Bft) 97,83 %
31.07.2021 03:06 17,0 C 16,1 C 14,5 C 76 % 1006,8 hPa 0,0 l/m 0 min 0 min 0 W/m 25,7 km/h (4 Bft) 97,87 %
31.07.2021 03:08 17,0 C 16,1 C 14,5 C 76 % 1006,9 hPa 0,0 l/m 0 min 0 min 0 W/m 16,1 km/h (3 Bft) 97,87 %
31.07.2021 03:10 17,0 C 16,1 C 14,5 C 77 % 1006,9 hPa 0,0 l/m 0 min 0 min 0 W/m 16,1 km/h (3 Bft) 95,74 %
31.07.2021 03:12 17,0 C 16,1 C 14,5 C 77 % 1006,9 hPa 0,0 l/m 0 min 0 min 0 W/m 35,4 km/h (5 Bft) 97,87 %
31.07.2021 03:14 16,9 C 16,1 C 14,5 C 77 % 1006,9 hPa 0,0 l/m 0 min 0 min 0 W/m 19,3 km/h (3 Bft) 97,87 %
31.07.2021 03:16 16,9 C 16,1 C 14,5 C 77 % 1006,9 hPa 0,0 l/m 0 min 0 min 0 W/m 12,9 km/h (3 Bft) 97,83 %
31.07.2021 03:18 16,9 C 16,1 C 14,5 C 77 % 1006,9 hPa 0,0 l/m 0 min 0 min 0 W/m 29,0 km/h (5 Bft) 97,87 %
31.07.2021 03:20 16,9 C 16,1 C 14,5 C 77 % 1006,9 hPa 0,0 l/m 0 min 0 min 0 W/m 25,7 km/h (4 Bft) 97,87 %
31.07.2021 03:22 16,9 C 16,1 C 14,5 C 77 % 1006,9 hPa 0,0 l/m 0 min 0 min 0 W/m 22,5 km/h (4 Bft) 97,87 %
31.07.2021 03:24 16,9 C 16,1 C 14,5 C 77 % 1006,8 hPa 0,0 l/m 0 min 0 min 0 W/m 41,8 km/h (6 Bft) 97,87 %
31.07.2021 03:26 16,9 C 16,1 C 14,5 C 77 % 1006,9 hPa 0,0 l/m 0 min 0 min 0 W/m 22,5 km/h (4 Bft) 97,87 %
31.07.2021 03:28 16,9 C 16,1 C 14,5 C 77 % 1006,9 hPa 0,0 l/m 0 min 0 min 0 W/m 22,5 km/h (4 Bft) 95,65 %
31.07.2021 03:30 16,9 C 16,1 C 14,5 C 77 % 1007,0 hPa 0,0 l/m 0 min 0 min 0 W/m 45,1 km/h (6 Bft) 97,87 %
31.07.2021 03:32 16,9 C 16,1 C 14,5 C 77 % 1006,8 hPa 0,0 l/m 0 min 0 min 0 W/m 22,5 km/h (4 Bft) 97,92 %
31.07.2021 03:34 16,9 C 16,1 C 13,9 C 77 % 1006,9 hPa 0,0 l/m 0 min 0 min 0 W/m 32,2 km/h (5 Bft) 97,87 %
31.07.2021 03:36 16,9 C 16,1 C 14,5 C 77 % 1006,9 hPa 0,0 l/m 0 min 0 min 0 W/m 19,3 km/h (3 Bft) 100,00 %
31.07.2021 03:38 16,9 C 16,1 C 14,5 C 77 % 1006,9 hPa 0,0 l/m 0 min 0 min 0 W/m 19,3 km/h (3 Bft) 97,87 %
31.07.2021 03:40 16,9 C 16,1 C 14,5 C 77 % 1006,9 hPa 0,0 l/m 0 min 0 min 0 W/m 19,3 km/h (3 Bft) 100,00 %
31.07.2021 03:42 16,9 C 16,1 C 14,5 C 77 % 1006,9 hPa 0,0 l/m 0 min 0 min 0 W/m 19,3 km/h (3 Bft) 100,00 %
31.07.2021 03:44 16,9 C 16,1 C 14,5 C 78 % 1006,9 hPa 0,0 l/m 0 min 0 min 0 W/m 29,0 km/h (5 Bft) 97,87 %
31.07.2021 03:46 16,9 C 16,1 C 14,5 C 78 % 1006,8 hPa 0,0 l/m 0 min 0 min 0 W/m 25,7 km/h (4 Bft) 100,00 %
31.07.2021 03:48 16,9 C 16,1 C 14,5 C 78 % 1006,8 hPa 0,0 l/m 0 min 0 min 0 W/m 22,5 km/h (4 Bft) 100,00 %
31.07.2021 03:50 16,9 C 16,1 C 14,5 C 78 % 1006,8 hPa 0,0 l/m 0 min 0 min 0 W/m 19,3 km/h (3 Bft) 100,00 %
31.07.2021 03:52 16,9 C 16,1 C 14,5 C 78 % 1006,8 hPa 0,0 l/m 0 min 0 min 0 W/m 25,7 km/h (4 Bft) 100,00 %
31.07.2021 03:54 16,9 C 16,1 C 14,5 C 78 % 1006,8 hPa 0,0 l/m 0 min 0 min 0 W/m 32,2 km/h (5 Bft) 53,49 %
31.07.2021 03:56 16,9 C 16,1 C 14,5 C 78 % 1006,8 hPa 0,0 l/m 0 min 0 min 0 W/m 29,0 km/h (5 Bft) 100,00 %
31.07.2021 03:58 16,9 C 16,1 C 14,5 C 78 % 1006,8 hPa 0,0 l/m 0 min 0 min 0 W/m 16,1 km/h (3 Bft) 100,00 %
31.07.2021 04:00 16,9 C 16,1 C 14,5 C 78 % 1006,8 hPa 0,0 l/m 0 min 0 min 0 W/m 29,0 km/h (5 Bft) 100,00 %
31.07.2021 04:02 16,9 C 16,1 C 14,5 C 78 % 1006,8 hPa 0,0 l/m 0 min 0 min 0 W/m 25,7 km/h (4 Bft) 96,88 %
31.07.2021 04:04 16,8 C 16,1 C 14,5 C 78 % 1006,8 hPa 0,0 l/m 0 min 0 min 0 W/m 22,5 km/h (4 Bft) 97,87 %
31.07.2021 04:06 16,8 C 16,1 C 13,9 C 78 % 1006,8 hPa 0,0 l/m 0 min 0 min 0 W/m 29,0 km/h (5 Bft) 97,83 %
31.07.2021 04:08 16,8 C 16,1 C 13,9 C 78 % 1006,8 hPa 0,0 l/m 0 min 0 min 0 W/m 25,7 km/h (4 Bft) 95,74 %
31.07.2021 04:10 16,8 C 16,1 C 13,9 C 78 % 1006,8 hPa 0,0 l/m 0 min 0 min 0 W/m 32,2 km/h (5 Bft) 97,87 %
31.07.2021 04:12 16,7 C 16,1 C 13,9 C 78 % 1006,8 hPa 0,0 l/m 0 min 0 min 0 W/m 19,3 km/h (3 Bft) 97,87 %
31.07.2021 04:14 16,7 C 15,6 C 13,9 C 78 % 1006,8 hPa 0,0 l/m 0 min 0 min 0 W/m 25,7 km/h (4 Bft) 97,87 %
31.07.2021 04:16 16,6 C 15,6 C 13,9 C 78 % 1006,7 hPa 0,0 l/m 0 min 0 min 0 W/m 25,7 km/h (4 Bft) 95,74 %
31.07.2021 04:18 16,6 C 15,6 C 13,9 C 78 % 1006,8 hPa 0,0 l/m 0 min 0 min 0 W/m 35,4 km/h (5 Bft) 97,83 %
31.07.2021 04:20 16,6 C 15,6 C 13,9 C 78 % 1006,8 hPa 0,0 l/m 0 min 0 min 0 W/m 19,3 km/h (3 Bft) 97,87 %
31.07.2021 04:22 16,6 C 15,6 C 13,9 C 78 % 1006,8 hPa 0,0 l/m 0 min 0 min 0 W/m 19,3 km/h (3 Bft) 97,87 %
31.07.2021 04:24 16,6 C 15,6 C 13,9 C 78 % 1006,7 hPa 0,0 l/m 0 min 0 min 0 W/m 22,5 km/h (4 Bft) 97,87 %
31.07.2021 04:26 16,5 C 15,6 C 13,9 C 79 % 1006,7 hPa 0,0 l/m 0 min 0 min 0 W/m 22,5 km/h (4 Bft) 97,87 %
31.07.2021 04:28 16,5 C 15,6 C 13,9 C 79 % 1006,8 hPa 0,0 l/m 0 min 0 min 0 W/m 41,8 km/h (6 Bft) 97,87 %
31.07.2021 04:30 16,5 C 15,6 C 13,9 C 79 % 1006,7 hPa 0,0 l/m 0 min 0 min 0 W/m 25,7 km/h (4 Bft) 97,83 %
31.07.2021 04:32 16,5 C 15,6 C 13,9 C 79 % 1006,7 hPa 0,0 l/m 0 min 0 min 0 W/m 25,7 km/h (4 Bft) 97,87 %
31.07.2021 04:34 16,5 C 15,6 C 13,9 C 79 % 1006,6 hPa 0,0 l/m 0 min 0 min 0 W/m 19,3 km/h (3 Bft) 95,74 %
31.07.2021 04:36 16,5 C 15,6 C 13,9 C 79 % 1006,7 hPa 0,0 l/m 0 min 0 min 0 W/m 29,0 km/h (5 Bft) 97,87 %
31.07.2021 04:38 16,5 C 15,6 C 13,9 C 79 % 1006,7 hPa 0,0 l/m 0 min 0 min 0 W/m 32,2 km/h (5 Bft) 95,74 %
31.07.2021 04:40 16,5 C 15,6 C 13,9 C 79 % 1006,8 hPa 0,0 l/m 0 min 0 min 0 W/m 25,7 km/h (4 Bft) 97,87 %
31.07.2021 04:42 16,5 C 15,6 C 13,9 C 79 % 1006,7 hPa 0,0 l/m 0 min 0 min 0 W/m 25,7 km/h (4 Bft) 97,83 %
31.07.2021 04:44 16,5 C 15,6 C 13,9 C 79 % 1006,8 hPa 0,0 l/m 0 min 0 min 0 W/m 25,7 km/h (4 Bft) 97,87 %
31.07.2021 04:46 16,5 C 15,6 C 13,9 C 79 % 1006,7 hPa 0,0 l/m 0 min 0 min 0 W/m 22,5 km/h (4 Bft) 95,74 %
31.07.2021 04:48 16,5 C 16,1 C 13,9 C 79 % 1006,7 hPa 0,0 l/m 0 min 0 min 0 W/m 35,4 km/h (5 Bft) 97,87 %
31.07.2021 04:50 16,5 C 16,1 C 13,9 C 79 % 1006,8 hPa 0,0 l/m 0 min 0 min 0 W/m 29,0 km/h (5 Bft) 97,87 %
31.07.2021 04:52 16,5 C 16,1 C 13,9 C 79 % 1006,8 hPa 0,0 l/m 0 min 0 min 0 W/m 38,6 km/h (5 Bft) 100,00 %
31.07.2021 04:54 16,6 C 16,1 C 13,9 C 78 % 1006,7 hPa 0,0 l/m 0 min 0 min 0 W/m 25,7 km/h (4 Bft) 100,00 %
31.07.2021 04:56 16,6 C 16,1 C 13,9 C 79 % 1006,7 hPa 0,0 l/m 0 min 0 min 0 W/m 41,8 km/h (6 Bft) 100,00 %
31.07.2021 04:58 16,6 C 16,1 C 13,9 C 78 % 1006,7 hPa 0,0 l/m 0 min 0 min 0 W/m 25,7 km/h (4 Bft) 100,00 %
31.07.2021 05:00 16,6 C 16,1 C 13,9 C 79 % 1006,7 hPa 0,0 l/m 0 min 0 min 0 W/m 25,7 km/h (4 Bft) 100,00 %
31.07.2021 05:02 16,6 C 16,1 C 13,9 C 78 % 1006,7 hPa 0,0 l/m 0 min 0 min 0 W/m 35,4 km/h (5 Bft) 97,92 %
31.07.2021 05:04 16,6 C 16,1 C 13,9 C 79 % 1006,6 hPa 0,0 l/m 0 min 0 min 0 W/m 25,7 km/h (4 Bft) 97,87 %
31.07.2021 05:06 16,6 C 16,1 C 13,9 C 78 % 1006,6 hPa 0,0 l/m 0 min 0 min 0 W/m 35,4 km/h (5 Bft) 100,00 %
31.07.2021 05:08 16,6 C 16,1 C 13,9 C 78 % 1006,5 hPa 0,0 l/m 0 min 0 min 0 W/m 22,5 km/h (4 Bft) 100,00 %
31.07.2021 05:10 16,6 C 16,1 C 13,9 C 78 % 1006,5 hPa 0,0 l/m 0 min 0 min 0 W/m 35,4 km/h (5 Bft) 100,00 %
31.07.2021 05:12 16,6 C 16,1 C 13,9 C 78 % 1006,5 hPa 0,0 l/m 0 min 0 min 0 W/m 41,8 km/h (6 Bft) 100,00 %
31.07.2021 05:14 16,6 C 16,1 C 13,9 C 78 % 1006,6 hPa 0,0 l/m 0 min 0 min 0 W/m 35,4 km/h (5 Bft) 97,87 %
31.07.2021 05:16 16,6 C 16,1 C 13,9 C 78 % 1006,6 hPa 0,0 l/m 0 min 0 min 0 W/m 29,0 km/h (5 Bft) 100,00 %
31.07.2021 05:18 16,6 C 16,1 C 13,9 C 78 % 1006,6 hPa 0,0 l/m 0 min 0 min 0 W/m 29,0 km/h (5 Bft) 100,00 %
31.07.2021 05:20 16,6 C 16,1 C 13,9 C 78 % 1006,6 hPa 0,0 l/m 0 min 0 min 0 W/m 32,2 km/h (5 Bft) 97,87 %
31.07.2021 05:22 16,6 C 16,1 C 13,9 C 78 % 1006,5 hPa 0,0 l/m 0 min 0 min 0 W/m 22,5 km/h (4 Bft) 100,00 %
31.07.2021 05:24 16,6 C 16,1 C 13,9 C 78 % 1006,5 hPa 0,0 l/m 0 min 0 min 0 W/m 25,7 km/h (4 Bft) 100,00 %
31.07.2021 05:26 16,6 C 16,1 C 13,9 C 78 % 1006,5 hPa 0,0 l/m 0 min 0 min 0 W/m 29,0 km/h (5 Bft) 100,00 %
31.07.2021 05:28 16,6 C 16,1 C 13,9 C 78 % 1006,5 hPa 0,0 l/m 0 min 0 min 0 W/m 25,7 km/h (4 Bft) 100,00 %
31.07.2021 05:30 16,6 C 16,1 C 13,9 C 78 % 1006,4 hPa 0,0 l/m 0 min 0 min 0 W/m 19,3 km/h (3 Bft) 100,00 %
31.07.2021 05:32 16,6 C 15,6 C 13,9 C 78 % 1006,5 hPa 0,0 l/m 0 min 0 min 0 W/m 29,0 km/h (5 Bft) 97,92 %
31.07.2021 05:34 16,5 C 15,6 C 13,9 C 78 % 1006,4 hPa 0,0 l/m 0 min 0 min 0 W/m 25,7 km/h (4 Bft) 95,74 %
31.07.2021 05:36 16,5 C 15,6 C 13,9 C 79 % 1006,6 hPa 0,0 l/m 0 min 0 min 0 W/m 29,0 km/h (5 Bft) 95,74 %
31.07.2021 05:38 16,5 C 15,6 C 13,9 C 79 % 1006,4 hPa 0,0 l/m 0 min 0 min 0 W/m 25,7 km/h (4 Bft) 95,74 %
31.07.2021 05:40 16,5 C 15,6 C 13,9 C 79 % 1006,5 hPa 0,0 l/m 0 min 0 min 0 W/m 16,1 km/h (3 Bft) 95,65 %
31.07.2021 05:42 16,5 C 15,6 C 13,9 C 79 % 1006,5 hPa 0,0 l/m 0 min 0 min 0 W/m 25,7 km/h (4 Bft) 95,74 %
31.07.2021 05:44 16,4 C 15,6 C 13,9 C 79 % 1006,5 hPa 0,0 l/m 0 min 0 min 0 W/m 38,6 km/h (5 Bft) 95,74 %
31.07.2021 05:46 16,4 C 15,6 C 13,9 C 79 % 1006,5 hPa 0,0 l/m 0 min 0 min 0 W/m 25,7 km/h (4 Bft) 95,74 %
31.07.2021 05:48 16,4 C 15,6 C 13,9 C 79 % 1006,6 hPa 0,0 l/m 0 min 0 min 0 W/m 19,3 km/h (3 Bft) 93,62 %
31.07.2021 05:50 16,4 C 15,6 C 13,9 C 79 % 1006,6 hPa 0,0 l/m 0 min 0 min 0 W/m 29,0 km/h (5 Bft) 95,74 %
31.07.2021 05:52 16,3 C 15,6 C 13,9 C 79 % 1006,6 hPa 0,0 l/m 0 min 0 min 0 W/m 29,0 km/h (5 Bft) 95,65 %
31.07.2021 05:54 16,3 C 15,6 C 13,9 C 79 % 1006,6 hPa 0,0 l/m 0 min 0 min 0 W/m 29,0 km/h (5 Bft) 95,74 %
31.07.2021 05:56 16,3 C 15,6 C 13,4 C 80 % 1006,6 hPa 0,0 l/m 0 min 0 min 0 W/m 38,6 km/h (5 Bft) 95,74 %
31.07.2021 05:58 16,3 C 15,6 C 13,4 C 80 % 1006,5 hPa 0,0 l/m 0 min 0 min 0 W/m 25,7 km/h (4 Bft) 93,62 %
31.07.2021 06:00 16,2 C 15,6 C 13,4 C 80 % 1006,5 hPa 0,0 l/m 0 min 0 min 0 W/m 25,7 km/h (4 Bft) 95,74 %
31.07.2021 06:02 16,2 C 15,6 C 13,4 C 80 % 1006,6 hPa 0,0 l/m 0 min 0 min 5 W/m 16,1 km/h (3 Bft) 95,74 %
31.07.2021 06:04 16,1 C 15,6 C 13,4 C 80 % 1006,5 hPa 0,0 l/m 0 min 0 min 5 W/m 12,9 km/h (3 Bft) 95,65 %
31.07.2021 06:08 16,1 C 15,0 C 13,4 C 80 % 1006,7 hPa 0,0 l/m 0 min 0 min 6 W/m 25,7 km/h (4 Bft) 93,68 %
31.07.2021 06:10 16,1 C 15,0 C 13,4 C 80 % 1006,7 hPa 0,0 l/m 0 min 0 min 9 W/m 35,4 km/h (5 Bft) 95,74 %
31.07.2021 06:12 16,0 C 15,6 C 13,4 C 81 % 1006,7 hPa 0,0 l/m 0 min 0 min 9 W/m 32,2 km/h (5 Bft) 95,65 %
31.07.2021 06:14 16,0 C 15,6 C 13,4 C 81 % 1006,7 hPa 0,0 l/m 0 min 0 min 9 W/m 22,5 km/h (4 Bft) 95,74 %
31.07.2021 06:16 16,1 C 15,6 C 13,4 C 81 % 1006,7 hPa 0,0 l/m 0 min 0 min 9 W/m 19,3 km/h (3 Bft) 93,62 %
31.07.2021 06:18 16,1 C 15,6 C 13,4 C 81 % 1006,8 hPa 0,0 l/m 0 min 0 min 9 W/m 22,5 km/h (4 Bft) 95,74 %
31.07.2021 06:20 16,1 C 15,6 C 13,4 C 81 % 1006,8 hPa 0,0 l/m 0 min 0 min 7 W/m 25,7 km/h (4 Bft) 95,74 %
31.07.2021 06:22 16,1 C 15,6 C 13,9 C 81 % 1006,8 hPa 0,0 l/m 0 min 0 min 7 W/m 29,0 km/h (5 Bft) 93,62 %
31.07.2021 06:24 16,1 C 15,6 C 13,9 C 81 % 1007,0 hPa 0,0 l/m 0 min 0 min 7 W/m 16,1 km/h (3 Bft) 97,87 %
31.07.2021 06:26 16,1 C 15,6 C 13,9 C 81 % 1006,9 hPa 0,0 l/m 0 min 0 min 9 W/m 29,0 km/h (5 Bft) 97,83 %
31.07.2021 06:28 16,1 C 15,6 C 13,9 C 81 % 1006,9 hPa 0,0 l/m 0 min 0 min 11 W/m 25,7 km/h (4 Bft) 95,74 %
31.07.2021 06:30 16,1 C 15,6 C 13,9 C 81 % 1006,8 hPa 0,0 l/m 0 min 0 min 16 W/m 32,2 km/h (5 Bft) 97,87 %
31.07.2021 06:32 16,1 C 15,6 C 13,9 C 81 % 1006,9 hPa 0,0 l/m 0 min 0 min 19 W/m 45,1 km/h (6 Bft) 97,87 %
31.07.2021 06:34 16,1 C 15,6 C 13,9 C 81 % 1006,8 hPa 0,0 l/m 0 min 0 min 21 W/m 25,7 km/h (4 Bft) 97,87 %
31.07.2021 06:36 16,1 C 15,6 C 13,9 C 81 % 1006,8 hPa 0,0 l/m 0 min 0 min 18 W/m 19,3 km/h (3 Bft) 97,83 %
31.07.2021 06:38 16,1 C 15,6 C 13,9 C 81 % 1006,8 hPa 0,0 l/m 0 min 0 min 22 W/m 25,7 km/h (4 Bft) 97,87 %
31.07.2021 06:40 16,1 C 15,6 C 13,9 C 81 % 1006,8 hPa 0,0 l/m 0 min 0 min 27 W/m 29,0 km/h (5 Bft) 95,74 %
31.07.2021 06:42 16,1 C 15,6 C 13,9 C 81 % 1006,9 hPa 0,0 l/m 0 min 0 min 30 W/m 32,2 km/h (5 Bft) 97,87 %
31.07.2021 06:44 16,1 C 15,6 C 13,9 C 81 % 1006,8 hPa 0,0 l/m 0 min 0 min 27 W/m 38,6 km/h (5 Bft) 97,87 %
31.07.2021 06:46 16,1 C 15,6 C 13,9 C 81 % 1006,9 hPa 0,0 l/m 0 min 0 min 20 W/m 29,0 km/h (5 Bft) 97,87 %
31.07.2021 06:48 16,1 C 15,6 C 13,9 C 81 % 1006,9 hPa 0,0 l/m 0 min 0 min 13 W/m 25,7 km/h (4 Bft) 97,87 %
31.07.2021 06:50 16,1 C 15,6 C 13,9 C 81 % 1007,0 hPa 0,0 l/m 0 min 0 min 11 W/m 25,7 km/h (4 Bft) 97,83 %
31.07.2021 06:52 16,1 C 15,6 C 13,9 C 81 % 1007,1 hPa 0,0 l/m 0 min 0 min 12 W/m 29,0 km/h (5 Bft) 97,87 %
31.07.2021 06:54 16,2 C 15,6 C 13,9 C 81 % 1007,1 hPa 0,0 l/m 0 min 0 min 13 W/m 25,7 km/h (4 Bft) 100,00 %
31.07.2021 06:56 16,2 C 15,6 C 13,9 C 81 % 1007,1 hPa 0,0 l/m 0 min 0 min 16 W/m 22,5 km/h (4 Bft) 97,87 %
31.07.2021 06:58 16,2 C 15,6 C 13,9 C 81 % 1007,0 hPa 0,0 l/m 0 min 0 min 25 W/m 16,1 km/h (3 Bft) 95,74 %
31.07.2021 07:00 16,2 C 15,6 C 13,9 C 81 % 1007,3 hPa 0,0 l/m 0 min 0 min 23 W/m 32,2 km/h (5 Bft) 97,83 %
31.07.2021 07:02 16,2 C 15,6 C 13,9 C 81 % 1007,1 hPa 0,0 l/m 0 min 0 min 30 W/m 22,5 km/h (4 Bft) 97,87 %
31.07.2021 07:04 16,2 C 15,6 C 13,9 C 81 % 1007,1 hPa 0,0 l/m 0 min 0 min 35 W/m 19,3 km/h (3 Bft) 97,87 %
31.07.2021 07:06 16,2 C 15,6 C 13,9 C 81 % 1007,1 hPa 0,0 l/m 0 min 0 min 45 W/m 19,3 km/h (3 Bft) 97,87 %
31.07.2021 07:08 16,2 C 15,6 C 13,9 C 81 % 1007,1 hPa 0,0 l/m 0 min 0 min 47 W/m 25,7 km/h (4 Bft) 97,87 %
31.07.2021 07:10 16,3 C 15,6 C 13,9 C 81 % 1007,1 hPa 0,0 l/m 0 min 0 min 36 W/m 12,9 km/h (3 Bft) 97,87 %
31.07.2021 07:12 16,3 C 15,6 C 13,9 C 81 % 1007,1 hPa 0,0 l/m 0 min 0 min 37 W/m 12,9 km/h (3 Bft) 95,65 %
31.07.2021 07:14 16,3 C 15,6 C 13,9 C 82 % 1007,2 hPa 0,0 l/m 0 min 0 min 34 W/m 22,5 km/h (4 Bft) 97,87 %
31.07.2021 07:16 16,3 C 15,6 C 13,9 C 81 % 1007,1 hPa 0,0 l/m 0 min 0 min 21 W/m 29,0 km/h (5 Bft) 97,87 %
31.07.2021 07:18 16,3 C 15,6 C 13,9 C 81 % 1007,1 hPa 0,0 l/m 0 min 0 min 17 W/m 22,5 km/h (4 Bft) 97,87 %
31.07.2021 07:20 16,2 C 15,6 C 13,9 C 81 % 1007,2 hPa 0,0 l/m 0 min 0 min 16 W/m 35,4 km/h (5 Bft) 97,87 %
31.07.2021 07:22 16,3 C 15,6 C 13,9 C 81 % 1007,2 hPa 0,0 l/m 0 min 0 min 25 W/m 19,3 km/h (3 Bft) 95,74 %
31.07.2021 07:24 16,3 C 15,6 C 13,9 C 81 % 1007,2 hPa 0,0 l/m 0 min 0 min 33 W/m 35,4 km/h (5 Bft) 97,83 %
31.07.2021 07:26 16,3 C 15,6 C 13,9 C 81 % 1007,3 hPa 0,0 l/m 0 min 0 min 37 W/m 29,0 km/h (5 Bft) 97,87 %
31.07.2021 07:28 16,3 C 15,6 C 13,9 C 81 % 1007,2 hPa 0,0 l/m 0 min 0 min 30 W/m 35,4 km/h (5 Bft) 97,87 %
31.07.2021 07:30 16,3 C 15,6 C 13,9 C 81 % 1007,2 hPa 0,0 l/m 0 min 0 min 31 W/m 35,4 km/h (5 Bft) 95,74 %
31.07.2021 07:32 16,3 C 15,6 C 13,9 C 81 % 1007,1 hPa 0,0 l/m 0 min 0 min 31 W/m 29,0 km/h (5 Bft) 97,87 %
31.07.2021 07:34 16,3 C 15,6 C 13,9 C 82 % 1007,2 hPa 0,0 l/m 0 min 0 min 32 W/m 32,2 km/h (5 Bft) 98,15 %
31.07.2021 07:36 16,3 C 15,6 C 13,9 C 81 % 1007,2 hPa 0,0 l/m 0 min 0 min 35 W/m 32,2 km/h (5 Bft) 95,65 %
31.07.2021 07:38 16,3 C 15,6 C 13,9 C 81 % 1007,4 hPa 0,0 l/m 0 min 0 min 38 W/m 35,4 km/h (5 Bft) 97,87 %
31.07.2021 07:40 16,3 C 15,6 C 13,9 C 81 % 1007,3 hPa 0,0 l/m 0 min 0 min 34 W/m 19,3 km/h (3 Bft) 95,74 %
31.07.2021 07:42 16,3 C 15,6 C 13,9 C 81 % 1007,2 hPa 0,0 l/m 0 min 0 min 38 W/m 22,5 km/h (4 Bft) 97,87 %
31.07.2021 07:44 16,3 C 15,6 C 13,9 C 81 % 1007,3 hPa 0,0 l/m 0 min 0 min 34 W/m 19,3 km/h (3 Bft) 100,00 %
31.07.2021 07:46 16,3 C 15,6 C 13,9 C 81 % 1007,5 hPa 0,0 l/m 0 min 0 min 38 W/m 29,0 km/h (5 Bft) 95,74 %
31.07.2021 07:48 16,3 C 15,6 C 13,9 C 81 % 1007,3 hPa 0,0 l/m 0 min 0 min 51 W/m 19,3 km/h (3 Bft) 97,83 %
31.07.2021 07:50 16,3 C 15,6 C 13,9 C 82 % 1007,5 hPa 0,0 l/m 0 min 0 min 52 W/m 32,2 km/h (5 Bft) 100,00 %
31.07.2021 07:52 16,3 C 15,6 C 13,9 C 81 % 1007,3 hPa 0,0 l/m 0 min 0 min 62 W/m 16,1 km/h (3 Bft) 100,00 %
31.07.2021 07:54 16,3 C 16,1 C 13,9 C 82 % 1007,4 hPa 0,0 l/m 0 min 0 min 74 W/m 25,7 km/h (4 Bft) 100,00 %
31.07.2021 07:56 16,3 C 16,1 C 14,5 C 81 % 1007,4 hPa 0,0 l/m 0 min 0 min 75 W/m 32,2 km/h (5 Bft) 100,00 %
31.07.2021 07:58 16,4 C 15,6 C 14,5 C 81 % 1007,5 hPa 0,0 l/m 0 min 0 min 59 W/m 35,4 km/h (5 Bft) 100,00 %
31.07.2021 08:00 16,4 C 16,1 C 14,5 C 81 % 1007,4 hPa 0,0 l/m 0 min 0 min 50 W/m 19,3 km/h (3 Bft) 100,00 %
31.07.2021 08:02 16,4 C 15,6 C 13,9 C 82 % 1007,4 hPa 0,0 l/m 0 min 0 min 42 W/m 25,7 km/h (4 Bft) 100,00 %
31.07.2021 08:04 16,4 C 15,6 C 13,9 C 81 % 1007,4 hPa 0,0 l/m 0 min 0 min 55 W/m 25,7 km/h (4 Bft) 100,00 %
31.07.2021 08:06 16,4 C 15,6 C 13,9 C 81 % 1007,4 hPa 0,0 l/m 0 min 0 min 62 W/m 22,5 km/h (4 Bft) 97,87 %
31.07.2021 08:08 16,4 C 16,1 C 14,5 C 82 % 1007,3 hPa 0,0 l/m 0 min 0 min 77 W/m 19,3 km/h (3 Bft) 100,00 %
31.07.2021 08:10 16,4 C 16,1 C 14,5 C 82 % 1007,5 hPa 0,0 l/m 0 min 0 min 85 W/m 19,3 km/h (3 Bft) 100,00 %
31.07.2021 08:12 16,4 C 16,1 C 14,5 C 82 % 1007,5 hPa 0,0 l/m 0 min 0 min 72 W/m 29,0 km/h (5 Bft) 100,00 %
31.07.2021 08:14 16,4 C 16,1 C 14,5 C 82 % 1007,5 hPa 0,0 l/m 0 min 0 min 76 W/m 25,7 km/h (4 Bft) 100,00 %
31.07.2021 08:16 16,4 C 16,1 C 14,5 C 81 % 1007,5 hPa 0,0 l/m 0 min 0 min 87 W/m 29,0 km/h (5 Bft) 100,00 %
31.07.2021 08:18 16,5 C 16,1 C 14,5 C 82 % 1007,4 hPa 0,0 l/m 0 min 0 min 90 W/m 25,7 km/h (4 Bft) 100,00 %
31.07.2021 08:20 16,5 C 16,1 C 14,5 C 82 % 1007,5 hPa 0,0 l/m 0 min 0 min 97 W/m 22,5 km/h (4 Bft) 100,00 %
31.07.2021 08:22 16,5 C 16,1 C 14,5 C 82 % 1007,5 hPa 0,0 l/m 0 min 0 min 104 W/m 16,1 km/h (3 Bft) 100,00 %
31.07.2021 08:24 16,5 C 16,1 C 14,5 C 82 % 1007,4 hPa 0,0 l/m 0 min 0 min 95 W/m 25,7 km/h (4 Bft) 95,74 %
31.07.2021 08:26 16,5 C 16,1 C 14,5 C 82 % 1007,5 hPa 0,0 l/m 0 min 0 min 95 W/m 32,2 km/h (5 Bft) 95,65 %
31.07.2021 08:28 16,5 C 16,1 C 14,5 C 81 % 1007,6 hPa 0,0 l/m 0 min 0 min 93 W/m 25,7 km/h (4 Bft) 97,87 %
31.07.2021 08:30 16,5 C 16,1 C 14,5 C 81 % 1007,6 hPa 0,0 l/m 0 min 0 min 86 W/m 25,7 km/h (4 Bft) 97,87 %
31.07.2021 08:32 16,5 C 16,1 C 14,5 C 81 % 1007,7 hPa 0,0 l/m 0 min 0 min 97 W/m 35,4 km/h (5 Bft) 95,83 %
31.07.2021 08:34 16,5 C 16,1 C 14,5 C 81 % 1007,7 hPa 0,0 l/m 0 min 0 min 109 W/m 29,0 km/h (5 Bft) 97,87 %
31.07.2021 08:36 16,6 C 16,1 C 14,5 C 82 % 1007,6 hPa 0,0 l/m 0 min 0 min 130 W/m 16,1 km/h (3 Bft) 97,83 %
31.07.2021 08:38 16,6 C 16,1 C 14,5 C 81 % 1007,7 hPa 0,0 l/m 0 min 0 min 98 W/m 35,4 km/h (5 Bft) 95,74 %
31.07.2021 08:40 16,6 C 16,1 C 14,5 C 81 % 1007,7 hPa 0,0 l/m 0 min 0 min 77 W/m 19,3 km/h (3 Bft) 97,87 %
31.07.2021 08:42 16,6 C 16,1 C 14,5 C 81 % 1007,7 hPa 0,0 l/m 0 min 0 min 73 W/m 19,3 km/h (3 Bft) 93,62 %
31.07.2021 08:44 16,5 C 16,7 C 14,5 C 81 % 1007,7 hPa 0,0 l/m 0 min 0 min 81 W/m 41,8 km/h (6 Bft) 97,87 %
31.07.2021 08:46 16,5 C 17,2 C 14,5 C 81 % 1007,6 hPa 0,0 l/m 0 min 0 min 153 W/m 25,7 km/h (4 Bft) 97,83 %
31.07.2021 08:48 16,6 C 18,3 C 15,0 C 81 % 1007,7 hPa 0,0 l/m 2 min 0 min 384 W/m 29,0 km/h (5 Bft) 97,87 %
31.07.2021 08:50 16,8 C 17,8 C 15,0 C 81 % 1007,8 hPa 0,0 l/m 2 min 0 min 339 W/m 29,0 km/h (5 Bft) 95,74 %
31.07.2021 08:52 16,8 C 17,2 C 15,0 C 81 % 1007,7 hPa 0,0 l/m 0 min 0 min 113 W/m 35,4 km/h (5 Bft) 95,74 %
31.07.2021 08:54 16,8 C 16,7 C 15,0 C 81 % 1007,8 hPa 0,0 l/m 0 min 0 min 115 W/m 22,5 km/h (4 Bft) 97,87 %
31.07.2021 08:56 16,8 C 16,7 C 15,0 C 81 % 1007,8 hPa 0,0 l/m 0 min 0 min 119 W/m 16,1 km/h (3 Bft) 96,23 %
31.07.2021 08:58 16,8 C 16,7 C 15,0 C 81 % 1007,8 hPa 0,0 l/m 0 min 0 min 104 W/m 16,1 km/h (3 Bft) 97,83 %
31.07.2021 09:00 16,8 C 16,7 C 15,0 C 81 % 1007,8 hPa 0,0 l/m 0 min 0 min 101 W/m 12,9 km/h (3 Bft) 97,87 %
31.07.2021 09:02 16,9 C 16,7 C 15,0 C 81 % 1008,0 hPa 0,0 l/m 0 min 0 min 118 W/m 19,3 km/h (3 Bft) 97,87 %
31.07.2021 09:04 16,8 C 16,7 C 15,0 C 81 % 1007,9 hPa 0,0 l/m 0 min 0 min 143 W/m 22,5 km/h (4 Bft) 97,56 %
31.07.2021 09:06 16,9 C 16,7 C 15,0 C 81 % 1007,9 hPa 0,0 l/m 0 min 0 min 161 W/m 16,1 km/h (3 Bft) 96,23 %
31.07.2021 09:08 16,9 C 16,7 C 15,0 C 81 % 1007,8 hPa 0,0 l/m 0 min 0 min 183 W/m 16,1 km/h (3 Bft) 94,44 %
31.07.2021 09:10 16,9 C 16,7 C 15,0 C 81 % 1007,8 hPa 0,0 l/m 2 min 0 min 237 W/m 16,1 km/h (3 Bft) 100,00 %
31.07.2021 09:12 16,9 C 17,2 C 15,0 C 81 % 1008,0 hPa 0,0 l/m 0 min 0 min 181 W/m 25,7 km/h (4 Bft) 100,00 %
31.07.2021 09:14 17,0 C 16,7 C 15,0 C 80 % 1007,9 hPa 0,0 l/m 0 min 0 min 155 W/m 19,3 km/h (3 Bft) 100,00 %
31.07.2021 09:16 17,0 C 16,7 C 15,0 C 80 % 1007,9 hPa 0,0 l/m 0 min 0 min 162 W/m 22,5 km/h (4 Bft) 97,87 %
31.07.2021 09:18 17,0 C 16,7 C 15,0 C 80 % 1007,9 hPa 0,0 l/m 0 min 0 min 165 W/m 35,4 km/h (5 Bft) 95,74 %
31.07.2021 09:20 17,0 C 16,7 C 15,0 C 80 % 1007,8 hPa 0,0 l/m 0 min 0 min 156 W/m 41,8 km/h (6 Bft) 100,00 %
31.07.2021 09:22 17,0 C 16,7 C 15,0 C 80 % 1007,9 hPa 0,0 l/m 0 min 0 min 121 W/m 35,4 km/h (5 Bft) 100,00 %
31.07.2021 09:24 17,0 C 18,3 C 16,1 C 80 % 1007,9 hPa 0,0 l/m 2 min 0 min 298 W/m 22,5 km/h (4 Bft) 97,83 %
31.07.2021 09:26 17,1 C 18,9 C 16,7 C 81 % 1008,0 hPa 0,0 l/m 2 min 0 min 541 W/m 25,7 km/h (4 Bft) 97,87 %
31.07.2021 09:28 17,2 C 18,9 C 16,1 C 80 % 1008,2 hPa 0,0 l/m 0 min 0 min 174 W/m 25,7 km/h (4 Bft) 97,87 %
31.07.2021 09:30 17,3 C 20,0 C 17,3 C 80 % 1008,0 hPa 0,0 l/m 2 min 0 min 456 W/m 25,7 km/h (4 Bft) 100,00 %
31.07.2021 09:32 17,4 C 20,6 C 17,8 C 80 % 1008,0 hPa 0,0 l/m 2 min 0 min 540 W/m 41,8 km/h (6 Bft) 95,74 %
31.07.2021 09:34 17,5 C 20,6 C 17,8 C 79 % 1008,0 hPa 0,0 l/m 2 min 0 min 508 W/m 22,5 km/h (4 Bft) 100,00 %
31.07.2021 09:36 17,6 C 20,0 C 17,8 C 79 % 1008,0 hPa 0,0 l/m 2 min 0 min 532 W/m 22,5 km/h (4 Bft) 97,83 %
31.07.2021 09:38 17,7 C 20,0 C 17,8 C 79 % 1008,0 hPa 0,0 l/m 2 min 0 min 504 W/m 41,8 km/h (6 Bft) 100,00 %
31.07.2021 09:40 17,8 C 20,6 C 18,4 C 79 % 1008,1 hPa 0,0 l/m 2 min 0 min 546 W/m 25,7 km/h (4 Bft) 100,00 %
31.07.2021 09:42 17,9 C 20,6 C 18,4 C 79 % 1008,0 hPa 0,0 l/m 2 min 0 min 538 W/m 45,1 km/h (6 Bft) 100,00 %
31.07.2021 09:44 17,9 C 20,6 C 18,4 C 78 % 1008,0 hPa 0,0 l/m 2 min 0 min 544 W/m 29,0 km/h (5 Bft) 95,74 %
31.07.2021 09:46 18,0 C 20,6 C 18,4 C 78 % 1008,1 hPa 0,0 l/m 2 min 0 min 549 W/m 38,6 km/h (5 Bft) 97,87 %
31.07.2021 09:48 18,0 C 20,6 C 18,4 C 78 % 1008,0 hPa 0,0 l/m 2 min 0 min 554 W/m 32,2 km/h (5 Bft) 97,83 %
31.07.2021 09:50 18,1 C 20,6 C 18,4 C 78 % 1008,0 hPa 0,0 l/m 2 min 0 min 569 W/m 35,4 km/h (5 Bft) 100,00 %
31.07.2021 09:52 18,1 C 20,6 C 18,4 C 78 % 1008,1 hPa 0,0 l/m 2 min 0 min 589 W/m 32,2 km/h (5 Bft) 97,87 %
31.07.2021 09:54 18,2 C 21,1 C 18,4 C 78 % 1008,1 hPa 0,0 l/m 2 min 0 min 653 W/m 16,1 km/h (3 Bft) 97,87 %
31.07.2021 09:56 18,4 C 21,1 C 18,4 C 78 % 1008,0 hPa 0,0 l/m 2 min 0 min 725 W/m 22,5 km/h (4 Bft) 100,00 %
31.07.2021 09:58 18,5 C 21,1 C 18,4 C 78 % 1008,2 hPa 0,0 l/m 2 min 0 min 724 W/m 25,7 km/h (4 Bft) 97,87 %
31.07.2021 10:00 18,6 C 20,0 C 17,8 C 77 % 1008,0 hPa 0,0 l/m 2 min 0 min 515 W/m 16,1 km/h (3 Bft) 97,83 %
31.07.2021 10:02 18,7 C 20,6 C 17,8 C 77 % 1008,1 hPa 0,0 l/m 0 min 0 min 215 W/m 12,9 km/h (3 Bft) 97,87 %
31.07.2021 10:04 18,8 C 21,1 C 17,8 C 77 % 1008,0 hPa 0,0 l/m 2 min 0 min 292 W/m 25,7 km/h (4 Bft) 95,74 %
31.07.2021 10:06 18,8 C 20,6 C 17,8 C 77 % 1008,1 hPa 0,0 l/m 0 min 0 min 234 W/m 41,8 km/h (6 Bft) 97,87 %
31.07.2021 10:08 18,7 C 20,0 C 17,3 C 76 % 1008,2 hPa 0,0 l/m 2 min 0 min 306 W/m 41,8 km/h (6 Bft) 97,87 %
31.07.2021 10:10 18,6 C 20,6 C 17,3 C 76 % 1008,1 hPa 0,0 l/m 2 min 0 min 376 W/m 22,5 km/h (4 Bft) 97,87 %
31.07.2021 10:12 18,7 C 20,6 C 16,7 C 76 % 1008,1 hPa 0,0 l/m 2 min 0 min 598 W/m 19,3 km/h (3 Bft) 95,65 %
31.07.2021 10:14 18,7 C 20,6 C 16,7 C 76 % 1008,1 hPa 0,0 l/m 2 min 0 min 669 W/m 19,3 km/h (3 Bft) 97,87 %
31.07.2021 10:16 18,8 C 21,1 C 16,7 C 77 % 1008,1 hPa 0,0 l/m 2 min 0 min 668 W/m 19,3 km/h (3 Bft) 95,74 %
31.07.2021 10:18 18,8 C 21,1 C 17,3 C 76 % 1008,1 hPa 0,0 l/m 2 min 0 min 700 W/m 32,2 km/h (5 Bft) 95,74 %
31.07.2021 10:20 18,8 C 20,6 C 16,7 C 76 % 1008,1 hPa 0,0 l/m 2 min 0 min 689 W/m 32,2 km/h (5 Bft) 95,74 %
31.07.2021 10:22 18,8 C 20,6 C 17,3 C 76 % 1008,1 hPa 0,0 l/m 2 min 0 min 364 W/m 19,3 km/h (3 Bft) 93,62 %
31.07.2021 10:24 18,9 C 20,6 C 17,3 C 77 % 1008,1 hPa 0,0 l/m 2 min 0 min 791 W/m 16,1 km/h (3 Bft) 95,65 %
31.07.2021 10:26 19,0 C 20,6 C 17,3 C 77 % 1008,2 hPa 0,0 l/m 2 min 0 min 702 W/m 16,1 km/h (3 Bft) 95,74 %
31.07.2021 10:28 19,0 C 20,0 C 17,3 C 75 % 1008,1 hPa 0,0 l/m 0 min 0 min 194 W/m 25,7 km/h (4 Bft) 95,74 %
31.07.2021 10:30 18,9 C 19,4 C 17,3 C 75 % 1008,1 hPa 0,0 l/m 0 min 0 min 200 W/m 32,2 km/h (5 Bft) 95,74 %
31.07.2021 10:32 18,9 C 20,0 C 17,3 C 75 % 1008,1 hPa 0,0 l/m 0 min 0 min 200 W/m 25,7 km/h (4 Bft) 95,74 %
31.07.2021 10:34 18,8 C 19,4 C 16,7 C 75 % 1008,3 hPa 0,0 l/m 0 min 0 min 200 W/m 38,6 km/h (5 Bft) 95,74 %
31.07.2021 10:36 18,8 C 19,4 C 17,3 C 76 % 1008,1 hPa 0,0 l/m 0 min 0 min 212 W/m 22,5 km/h (4 Bft) 93,48 %
31.07.2021 10:38 18,7 C 19,4 C 17,3 C 76 % 1008,1 hPa 0,0 l/m 2 min 0 min 791 W/m 22,5 km/h (4 Bft) 95,74 %
31.07.2021 10:40 18,7 C 20,0 C 17,8 C 76 % 1008,1 hPa 0,0 l/m 2 min 0 min 800 W/m 29,0 km/h (5 Bft) 97,87 %
31.07.2021 10:42 18,8 C 19,4 C 18,4 C 76 % 1008,1 hPa 0,0 l/m 2 min 0 min 821 W/m 25,7 km/h (4 Bft) 93,62 %
31.07.2021 10:44 18,8 C 19,4 C 18,4 C 76 % 1008,1 hPa 0,0 l/m 2 min 0 min 908 W/m 35,4 km/h (5 Bft) 93,62 %
31.07.2021 10:46 18,9 C 19,4 C 18,4 C 76 % 1008,1 hPa 0,0 l/m 2 min 0 min 375 W/m 22,5 km/h (4 Bft) 97,87 %
31.07.2021 10:48 18,9 C 19,4 C 18,4 C 75 % 1008,1 hPa 0,0 l/m 0 min 0 min 236 W/m 29,0 km/h (5 Bft) 95,65 %
31.07.2021 10:50 18,9 C 19,4 C 19,5 C 76 % 1008,1 hPa 0,0 l/m 2 min 0 min 788 W/m 22,5 km/h (4 Bft) 96,49 %
31.07.2021 10:52 19,0 C 19,4 C 18,9 C 76 % 1008,1 hPa 0,0 l/m 2 min 0 min 354 W/m 16,1 km/h (3 Bft) 97,22 %
31.07.2021 10:54 19,0 C 19,4 C 19,5 C 75 % 1008,2 hPa 0,0 l/m 0 min 0 min 179 W/m 16,1 km/h (3 Bft) 95,74 %
31.07.2021 10:56 19,1 C 19,4 C 19,5 C 75 % 1008,2 hPa 0,0 l/m 0 min 0 min 181 W/m 32,2 km/h (5 Bft) 95,74 %
31.07.2021 10:58 19,1 C 19,4 C 19,5 C 74 % 1008,3 hPa 0,0 l/m 0 min 0 min 181 W/m 41,8 km/h (6 Bft) 95,74 %
31.07.2021 11:00 19,1 C 19,4 C 19,5 C 74 % 1008,3 hPa 0,0 l/m 2 min 0 min 709 W/m 51,5 km/h (7 Bft) 95,65 %
31.07.2021 11:02 19,0 C 19,4 C 19,5 C 74 % 1008,3 hPa 0,0 l/m 2 min 0 min 765 W/m 22,5 km/h (4 Bft) 91,49 %
31.07.2021 11:04 19,0 C 19,4 C 19,5 C 74 % 1008,2 hPa 0,0 l/m 2 min 0 min 783 W/m 19,3 km/h (3 Bft) 93,62 %
31.07.2021 11:06 19,1 C 20,0 C 19,5 C 75 % 1008,3 hPa 0,0 l/m 2 min 0 min 742 W/m 19,3 km/h (3 Bft) 93,22 %
31.07.2021 11:08 19,2 C 19,4 C 18,9 C 74 % 1008,2 hPa 0,0 l/m 0 min 0 min 286 W/m 12,9 km/h (3 Bft) 95,65 %
31.07.2021 11:10 19,3 C 20,0 C 18,9 C 75 % 1008,2 hPa 0,0 l/m 0 min 0 min 315 W/m 22,5 km/h (4 Bft) 94,29 %
31.07.2021 11:12 19,4 C 20,0 C 18,9 C 75 % 1008,3 hPa 0,0 l/m 2 min 0 min 558 W/m 38,6 km/h (5 Bft) 95,74 %
31.07.2021 11:17 19,4 C 20,0 C 17,8 C 73 % 1008,2 hPa 0,0 l/m 5 min 0 min 813 W/m 51,5 km/h (7 Bft) 96,97 %
31.07.2021 11:18 19,4 C 20,0 C 17,8 C 73 % 1008,2 hPa 0,0 l/m 1 min 0 min 874 W/m 19,3 km/h (3 Bft) 91,67 %
31.07.2021 11:20 19,5 C 20,6 C 17,8 C 74 % 1008,3 hPa 0,0 l/m 2 min 0 min 919 W/m 29,0 km/h (5 Bft) 91,49 %
31.07.2021 11:22 19,5 C 20,0 C 18,4 C 73 % 1008,3 hPa 0,0 l/m 2 min 0 min 537 W/m 19,3 km/h (3 Bft) 95,65 %
31.07.2021 11:24 19,5 C 19,4 C 17,8 C 73 % 1008,3 hPa 0,0 l/m 2 min 0 min 445 W/m 19,3 km/h (3 Bft) 95,74 %
31.07.2021 11:26 19,4 C 18,9 C 17,3 C 73 % 1008,3 hPa 0,0 l/m 0 min 0 min 186 W/m 25,7 km/h (4 Bft) 97,87 %
31.07.2021 11:28 19,2 C 18,9 C 16,7 C 74 % 1008,3 hPa 0,0 l/m 0 min 0 min 192 W/m 19,3 km/h (3 Bft) 91,49 %
31.07.2021 11:30 19,2 C 18,9 C 17,3 C 74 % 1008,2 hPa 0,0 l/m 0 min 0 min 283 W/m 19,3 km/h (3 Bft) 91,49 %
31.07.2021 11:32 19,2 C 19,4 C 17,3 C 74 % 1008,3 hPa 0,0 l/m 0 min 0 min 318 W/m 25,7 km/h (4 Bft) 97,87 %
31.07.2021 11:34 19,2 C 19,4 C 17,3 C 73 % 1008,2 hPa 0,0 l/m 2 min 0 min 407 W/m 29,0 km/h (5 Bft) 97,87 %
31.07.2021 11:36 19,2 C 19,4 C 17,3 C 73 % 1008,3 hPa 0,0 l/m 2 min 0 min 382 W/m 22,5 km/h (4 Bft) 92,00 %
31.07.2021 11:38 19,1 C 18,9 C 17,3 C 74 % 1008,5 hPa 0,0 l/m 0 min 0 min 301 W/m 32,2 km/h (5 Bft) 97,87 %
31.07.2021 11:40 19,1 C 19,4 C 17,3 C 74 % 1008,3 hPa 0,0 l/m 0 min 0 min 313 W/m 29,0 km/h (5 Bft) 93,62 %
31.07.2021 11:42 19,2 C 20,0 C 17,8 C 74 % 1008,4 hPa 0,0 l/m 2 min 0 min 503 W/m 16,1 km/h (3 Bft) 100,00 %
31.07.2021 11:44 19,3 C 20,6 C 18,4 C 74 % 1008,4 hPa 0,0 l/m 2 min 0 min 994 W/m 35,4 km/h (5 Bft) 100,00 %
31.07.2021 11:46 19,5 C 21,1 C 18,9 C 74 % 1008,4 hPa 0,0 l/m 2 min 0 min 1001 W/m 22,5 km/h (4 Bft) 100,00 %
31.07.2021 11:48 19,7 C 21,7 C 18,9 C 74 % 1008,5 hPa 0,0 l/m 2 min 0 min 1011 W/m 38,6 km/h (5 Bft) 100,00 %
31.07.2021 11:50 19,9 C 22,2 C 19,5 C 73 % 1008,3 hPa 0,0 l/m 2 min 0 min 998 W/m 19,3 km/h (3 Bft) 97,87 %
31.07.2021 11:52 20,1 C 22,2 C 19,5 C 73 % 1008,4 hPa 0,0 l/m 2 min 0 min 1027 W/m 16,1 km/h (3 Bft) 97,87 %
31.07.2021 11:54 20,3 C 22,2 C 19,5 C 72 % 1008,4 hPa 0,0 l/m 2 min 0 min 772 W/m 22,5 km/h (4 Bft) 100,00 %
31.07.2021 11:56 20,3 C 21,1 C 18,9 C 71 % 1008,4 hPa 0,0 l/m 2 min 0 min 518 W/m 22,5 km/h (4 Bft) 100,00 %
31.07.2021 11:58 20,3 C 20,6 C 18,9 C 70 % 1008,4 hPa 0,0 l/m 0 min 0 min 279 W/m 19,3 km/h (3 Bft) 100,00 %
31.07.2021 12:00 20,1 C 20,0 C 18,4 C 70 % 1008,4 hPa 0,0 l/m 0 min 0 min 233 W/m 25,7 km/h (4 Bft) 100,00 %
31.07.2021 12:02 20,0 C 19,4 C 17,8 C 70 % 1008,4 hPa 0,0 l/m 0 min 0 min 210 W/m 25,7 km/h (4 Bft) 100,00 %
31.07.2021 12:04 19,8 C 19,4 C 17,3 C 71 % 1008,5 hPa 0,0 l/m 0 min 0 min 150 W/m 25,7 km/h (4 Bft) 100,00 %
31.07.2021 12:08 19,4 C 18,9 C 17,3 C 72 % 1008,5 hPa 0,0 l/m 0 min 0 min 262 W/m 22,5 km/h (4 Bft) 100,00 %
31.07.2021 12:10 19,4 C 20,0 C 18,4 C 72 % 1008,4 hPa 0,0 l/m 0 min 0 min 375 W/m 35,4 km/h (5 Bft) 100,00 %
31.07.2021 12:12 19,5 C 20,6 C 19,5 C 73 % 1008,6 hPa 0,0 l/m 2 min 0 min 791 W/m 16,1 km/h (3 Bft) 100,00 %
31.07.2021 12:14 19,8 C 21,1 C 21,7 C 72 % 1008,5 hPa 0,0 l/m 2 min 0 min 793 W/m 22,5 km/h (4 Bft) 100,00 %
31.07.2021 12:16 19,9 C 21,1 C 22,3 C 71 % 1008,5 hPa 0,0 l/m 2 min 0 min 1095 W/m 22,5 km/h (4 Bft) 100,00 %
31.07.2021 12:18 20,0 C 21,1 C 23,4 C 71 % 1008,5 hPa 0,0 l/m 2 min 0 min 933 W/m 25,7 km/h (4 Bft) 97,87 %
31.07.2021 12:20 20,0 C 21,1 C 22,8 C 70 % 1008,6 hPa 0,0 l/m 2 min 0 min 902 W/m 38,6 km/h (5 Bft) 100,00 %
31.07.2021 12:22 20,0 C 20,6 C 22,3 C 70 % 1008,6 hPa 0,0 l/m 2 min 0 min 861 W/m 25,7 km/h (4 Bft) 93,62 %
31.07.2021 12:24 20,1 C 21,1 C 23,4 C 70 % 1008,5 hPa 0,0 l/m 2 min 0 min 398 W/m 22,5 km/h (4 Bft) 97,87 %
31.07.2021 12:26 20,3 C 21,7 C 25,0 C 70 % 1008,5 hPa 0,0 l/m 2 min 0 min 874 W/m 16,1 km/h (3 Bft) 100,00 %
31.07.2021 12:28 20,5 C 22,2 C 26,7 C 70 % 1008,5 hPa 0,0 l/m 2 min 0 min 888 W/m 22,5 km/h (4 Bft) 100,00 %
31.07.2021 12:30 20,7 C 22,8 C 27,3 C 70 % 1008,6 hPa 0,0 l/m 2 min 0 min 887 W/m 19,3 km/h (3 Bft) 100,00 %
31.07.2021 12:32 20,9 C 22,8 C 27,8 C 70 % 1008,5 hPa 0,0 l/m 2 min 0 min 893 W/m 16,1 km/h (3 Bft) 97,83 %
31.07.2021 12:34 21,0 C 23,3 C 28,4 C 69 % 1008,6 hPa 0,0 l/m 2 min 0 min 894 W/m 19,3 km/h (3 Bft) 97,87 %
31.07.2021 12:36 21,1 C 22,8 C 28,4 C 68 % 1008,7 hPa 0,0 l/m 2 min 0 min 904 W/m 19,3 km/h (3 Bft) 97,87 %
31.07.2021 12:38 21,2 C 22,8 C 28,4 C 67 % 1008,7 hPa 0,0 l/m 2 min 0 min 949 W/m 29,0 km/h (5 Bft) 97,87 %
31.07.2021 12:40 21,3 C 22,8 C 27,8 C 67 % 1008,6 hPa 0,0 l/m 2 min 0 min 950 W/m 22,5 km/h (4 Bft) 100,00 %
31.07.2021 12:42 21,4 C 23,3 C 28,4 C 68 % 1008,5 hPa 0,0 l/m 2 min 0 min 936 W/m 16,1 km/h (3 Bft) 97,87 %
31.07.2021 12:44 21,6 C 23,3 C 26,1 C 66 % 1008,5 hPa 0,0 l/m 2 min 0 min 1012 W/m 32,2 km/h (5 Bft) 100,00 %
31.07.2021 12:46 21,5 C 22,2 C 24,5 C 65 % 1008,6 hPa 0,0 l/m 2 min 0 min 946 W/m 41,8 km/h (6 Bft) 100,00 %
31.07.2021 12:48 21,3 C 21,7 C 22,3 C 64 % 1008,5 hPa 0,0 l/m 0 min 0 min 325 W/m 35,4 km/h (5 Bft) 100,00 %
31.07.2021 12:50 21,3 C 22,2 C 21,7 C 66 % 1008,5 hPa 0,0 l/m 0 min 0 min 378 W/m 16,1 km/h (3 Bft) 100,00 %
31.07.2021 12:52 21,3 C 21,7 C 21,1 C 66 % 1008,6 hPa 0,0 l/m 0 min 0 min 378 W/m 32,2 km/h (5 Bft) 100,00 %
31.07.2021 12:54 21,3 C 22,8 C 22,8 C 66 % 1008,5 hPa 0,0 l/m 0 min 0 min 378 W/m 19,3 km/h (3 Bft) 100,00 %
31.07.2021 12:56 21,5 C 23,3 C 23,4 C 66 % 1008,7 hPa 0,0 l/m 2 min 0 min 1072 W/m 25,7 km/h (4 Bft) 100,00 %
31.07.2021 12:58 21,6 C 23,3 C 22,3 C 65 % 1008,5 hPa 0,0 l/m 2 min 0 min 824 W/m 16,1 km/h (3 Bft) 100,00 %
31.07.2021 13:00 21,6 C 22,2 C 21,1 C 64 % 1008,6 hPa 0,0 l/m 2 min 0 min 981 W/m 38,6 km/h (5 Bft) 100,00 %
31.07.2021 13:02 21,5 C 21,7 C 20,0 C 64 % 1008,6 hPa 0,0 l/m 0 min 0 min 299 W/m 29,0 km/h (5 Bft) 100,00 %
31.07.2021 13:04 21,4 C 21,1 C 20,0 C 64 % 1008,5 hPa 0,0 l/m 0 min 0 min 331 W/m 25,7 km/h (4 Bft) 100,00 %
31.07.2021 13:06 21,3 C 21,1 C 19,5 C 65 % 1008,6 hPa 0,0 l/m 0 min 0 min 386 W/m 25,7 km/h (4 Bft) 97,87 %
31.07.2021 13:08 21,2 C 21,1 C 19,5 C 65 % 1008,6 hPa 0,0 l/m 0 min 0 min 377 W/m 22,5 km/h (4 Bft) 100,00 %
31.07.2021 13:10 21,0 C 21,1 C 19,5 C 65 % 1008,6 hPa 0,0 l/m 0 min 0 min 373 W/m 19,3 km/h (3 Bft) 100,00 %
31.07.2021 13:12 21,0 C 21,1 C 19,5 C 67 % 1008,7 hPa 0,0 l/m 0 min 0 min 364 W/m 16,1 km/h (3 Bft) 97,87 %
31.07.2021 13:14 21,1 C 21,1 C 19,5 C 66 % 1008,6 hPa 0,0 l/m 0 min 0 min 336 W/m 16,1 km/h (3 Bft) 100,00 %
31.07.2021 13:16 21,1 C 21,7 C 19,5 C 67 % 1008,7 hPa 0,0 l/m 0 min 0 min 359 W/m 25,7 km/h (4 Bft) 97,87 %
31.07.2021 13:18 21,3 C 22,2 C 19,5 C 67 % 1008,6 hPa 0,0 l/m 2 min 0 min 589 W/m 25,7 km/h (4 Bft) 100,00 %
31.07.2021 13:20 21,4 C 22,2 C 20,0 C 66 % 1008,6 hPa 0,0 l/m 2 min 0 min 816 W/m 19,3 km/h (3 Bft) 95,74 %
31.07.2021 13:22 21,5 C 22,8 C 20,0 C 66 % 1008,7 hPa 0,0 l/m 0 min 0 min 388 W/m 22,5 km/h (4 Bft) 100,00 %
31.07.2021 13:24 21,6 C 23,3 C 20,0 C 65 % 1008,7 hPa 0,0 l/m 2 min 0 min 476 W/m 22,5 km/h (4 Bft) 97,87 %
31.07.2021 13:26 21,8 C 23,3 C 20,6 C 65 % 1008,7 hPa 0,0 l/m 2 min 0 min 667 W/m 32,2 km/h (5 Bft) 100,00 %
31.07.2021 13:28 21,8 C 23,3 C 20,6 C 64 % 1008,7 hPa 0,0 l/m 2 min 0 min 541 W/m 19,3 km/h (3 Bft) 95,74 %
31.07.2021 13:30 21,9 C 23,9 C 20,6 C 65 % 1008,6 hPa 0,0 l/m 2 min 0 min 541 W/m 16,1 km/h (3 Bft) 97,83 %
31.07.2021 13:32 22,0 C 23,3 C 20,6 C 64 % 1008,6 hPa 0,0 l/m 2 min 0 min 472 W/m 25,7 km/h (4 Bft) 97,87 %
31.07.2021 13:34 22,0 C 22,8 C 20,6 C 64 % 1008,7 hPa 0,0 l/m 0 min 0 min 372 W/m 19,3 km/h (3 Bft) 97,87 %
31.07.2021 13:36 21,9 C 22,2 C 20,0 C 64 % 1008,7 hPa 0,0 l/m 0 min 0 min 395 W/m 16,1 km/h (3 Bft) 91,49 %
31.07.2021 13:38 21,9 C 22,8 C 20,6 C 64 % 1008,7 hPa 0,0 l/m 2 min 0 min 513 W/m 16,1 km/h (3 Bft) 93,62 %
31.07.2021 13:40 21,9 C 22,8 C 20,6 C 64 % 1008,7 hPa 0,0 l/m 2 min 0 min 519 W/m 19,3 km/h (3 Bft) 95,74 %
31.07.2021 13:42 22,0 C 23,3 C 21,1 C 66 % 1008,7 hPa 0,0 l/m 2 min 0 min 519 W/m 25,7 km/h (4 Bft) 95,65 %
31.07.2021 13:44 22,1 C 23,3 C 21,1 C 66 % 1008,6 hPa 0,0 l/m 2 min 0 min 471 W/m 25,7 km/h (4 Bft) 95,74 %
31.07.2021 13:46 22,0 C 22,8 C 20,6 C 64 % 1008,7 hPa 0,0 l/m 0 min 0 min 380 W/m 25,7 km/h (4 Bft) 95,74 %
31.07.2021 13:48 21,9 C 22,2 C 20,6 C 65 % 1008,6 hPa 0,0 l/m 0 min 0 min 383 W/m 29,0 km/h (5 Bft) 95,74 %
31.07.2021 13:50 21,9 C 22,2 C 20,0 C 65 % 1008,7 hPa 0,0 l/m 0 min 0 min 372 W/m 19,3 km/h (3 Bft) 95,74 %
31.07.2021 13:52 21,8 C 21,7 C 19,5 C 65 % 1008,7 hPa 0,0 l/m 0 min 0 min 349 W/m 19,3 km/h (3 Bft) 93,62 %
31.07.2021 13:54 21,8 C 22,2 C 19,5 C 65 % 1008,7 hPa 0,0 l/m 0 min 0 min 334 W/m 16,1 km/h (3 Bft) 93,48 %
31.07.2021 13:56 21,7 C 21,7 C 19,5 C 65 % 1008,7 hPa 0,0 l/m 0 min 0 min 345 W/m 22,5 km/h (4 Bft) 91,49 %
31.07.2021 13:58 21,6 C 22,2 C 19,5 C 65 % 1008,8 hPa 0,0 l/m 0 min 0 min 390 W/m 12,9 km/h (3 Bft) 95,74 %
31.07.2021 14:00 21,6 C 22,2 C 20,0 C 66 % 1008,7 hPa 0,0 l/m 0 min 0 min 389 W/m 16,1 km/h (3 Bft) 95,74 %
31.07.2021 14:02 21,7 C 22,2 C 20,0 C 66 % 1008,8 hPa 0,0 l/m 0 min 0 min 384 W/m 16,1 km/h (3 Bft) 91,49 %
31.07.2021 14:04 21,6 C 21,7 C 19,5 C 65 % 1008,8 hPa 0,0 l/m 0 min 0 min 312 W/m 22,5 km/h (4 Bft) 93,88 %
31.07.2021 14:06 21,6 C 21,7 C 19,5 C 65 % 1008,9 hPa 0,0 l/m 0 min 0 min 236 W/m 29,0 km/h (5 Bft) 93,48 %
31.07.2021 14:08 21,5 C 21,1 C 18,9 C 65 % 1008,8 hPa 0,0 l/m 0 min 0 min 214 W/m 19,3 km/h (3 Bft) 95,74 %
31.07.2021 14:10 21,4 C 21,7 C 19,5 C 66 % 1008,8 hPa 0,0 l/m 0 min 0 min 246 W/m 12,9 km/h (3 Bft) 93,62 %
31.07.2021 14:12 21,4 C 21,1 C 18,9 C 66 % 1008,8 hPa 0,0 l/m 0 min 0 min 257 W/m 22,5 km/h (4 Bft) 95,74 %
31.07.2021 14:14 21,4 C 21,1 C 18,9 C 67 % 1008,9 hPa 0,0 l/m 0 min 0 min 190 W/m 32,2 km/h (5 Bft) 93,62 %
31.07.2021 14:16 21,3 C 21,1 C 18,9 C 67 % 1008,9 hPa 0,0 l/m 0 min 0 min 137 W/m 9,7 km/h (2 Bft) 95,74 %
31.07.2021 14:18 21,3 C 20,6 C 18,9 C 67 % 1008,9 hPa 0,0 l/m 0 min 0 min 128 W/m 12,9 km/h (3 Bft) 91,30 %
31.07.2021 14:20 21,1 C 20,6 C 18,4 C 67 % 1008,9 hPa 0,0 l/m 0 min 0 min 141 W/m 22,5 km/h (4 Bft) 95,74 %
31.07.2021 14:22 21,0 C 20,6 C 18,4 C 67 % 1009,0 hPa 0,0 l/m 0 min 0 min 174 W/m 12,9 km/h (3 Bft) 93,62 %
31.07.2021 14:24 21,0 C 20,6 C 18,4 C 67 % 1009,0 hPa 0,0 l/m 0 min 0 min 224 W/m 22,5 km/h (4 Bft) 95,74 %
31.07.2021 14:26 20,9 C 20,6 C 18,4 C 65 % 1009,0 hPa 0,0 l/m 0 min 0 min 234 W/m 16,1 km/h (3 Bft) 93,62 %
31.07.2021 14:28 20,9 C 20,6 C 18,4 C 65 % 1009,0 hPa 0,0 l/m 0 min 0 min 206 W/m 22,5 km/h (4 Bft) 93,62 %
31.07.2021 14:30 20,9 C 20,6 C 18,4 C 66 % 1009,0 hPa 0,0 l/m 0 min 0 min 168 W/m 22,5 km/h (4 Bft) 95,65 %
31.07.2021 14:32 20,8 C 20,0 C 17,8 C 65 % 1009,0 hPa 0,0 l/m 0 min 0 min 168 W/m 22,5 km/h (4 Bft) 97,87 %
31.07.2021 14:34 20,7 C 20,0 C 17,8 C 67 % 1009,1 hPa 0,0 l/m 0 min 0 min 206 W/m 22,5 km/h (4 Bft) 93,62 %
31.07.2021 14:36 20,7 C 20,6 C 18,4 C 67 % 1009,0 hPa 0,0 l/m 0 min 0 min 294 W/m 16,1 km/h (3 Bft) 97,87 %
31.07.2021 14:38 20,8 C 21,7 C 18,9 C 67 % 1009,0 hPa 0,0 l/m 2 min 0 min 476 W/m 19,3 km/h (3 Bft) 95,74 %
31.07.2021 14:40 21,0 C 22,8 C 18,9 C 67 % 1009,0 hPa 0,0 l/m 2 min 0 min 653 W/m 16,1 km/h (3 Bft) 97,87 %
31.07.2021 14:42 21,3 C 22,8 C 19,5 C 66 % 1009,0 hPa 0,0 l/m 2 min 0 min 709 W/m 22,5 km/h (4 Bft) 97,83 %
31.07.2021 14:44 21,4 C 22,8 C 19,5 C 67 % 1009,0 hPa 0,0 l/m 2 min 0 min 664 W/m 19,3 km/h (3 Bft) 95,74 %
31.07.2021 14:46 21,6 C 23,3 C 20,0 C 67 % 1008,9 hPa 0,0 l/m 2 min 0 min 596 W/m 12,9 km/h (3 Bft) 95,74 %
31.07.2021 14:48 21,8 C 23,9 C 20,0 C 67 % 1008,9 hPa 0,0 l/m 2 min 0 min 534 W/m 16,1 km/h (3 Bft) 97,87 %
31.07.2021 14:50 22,0 C 23,9 C 20,0 C 68 % 1009,0 hPa 0,0 l/m 2 min 0 min 534 W/m 19,3 km/h (3 Bft) 95,74 %
31.07.2021 14:52 22,1 C 23,3 C 20,0 C 66 % 1009,0 hPa 0,0 l/m 2 min 0 min 467 W/m 16,1 km/h (3 Bft) 97,83 %
31.07.2021 14:54 22,1 C 22,8 C 20,0 C 65 % 1009,0 hPa 0,0 l/m 0 min 0 min 289 W/m 16,1 km/h (3 Bft) 95,74 %
31.07.2021 14:56 22,0 C 22,2 C 20,0 C 66 % 1009,0 hPa 0,0 l/m 0 min 0 min 268 W/m 19,3 km/h (3 Bft) 100,00 %
31.07.2021 15:01 21,6 C 21,1 C 20,0 C 66 % 1009,1 hPa 0,0 l/m 0 min 0 min 229 W/m 22,5 km/h (4 Bft) 97,73 %
31.07.2021 15:02 21,6 C 21,1 C 18,9 C 66 % 1009,1 hPa 0,0 l/m 0 min 0 min 234 W/m 19,3 km/h (3 Bft) 100,00 %
31.07.2021 15:04 21,4 C 21,1 C 18,9 C 67 % 1009,1 hPa 0,0 l/m 0 min 0 min 246 W/m 16,1 km/h (3 Bft) 97,83 %
31.07.2021 15:06 21,3 C 21,1 C 18,4 C 68 % 1009,1 hPa 0,0 l/m 0 min 0 min 290 W/m 12,9 km/h (3 Bft) 95,74 %
31.07.2021 15:08 21,3 C 21,1 C 18,9 C 68 % 1009,2 hPa 0,0 l/m 0 min 0 min 306 W/m 19,3 km/h (3 Bft) 97,87 %
31.07.2021 15:10 21,2 C 22,2 C 18,9 C 69 % 1009,2 hPa 0,0 l/m 0 min 0 min 306 W/m 12,9 km/h (3 Bft) 97,87 %
31.07.2021 15:12 21,3 C 22,8 C 18,9 C 69 % 1009,1 hPa 0,0 l/m 2 min 0 min 499 W/m 22,5 km/h (4 Bft) 95,74 %
31.07.2021 15:14 21,4 C 22,2 C 18,9 C 69 % 1009,2 hPa 0,0 l/m 2 min 0 min 438 W/m 12,9 km/h (3 Bft) 97,87 %
31.07.2021 15:16 21,5 C 23,3 C 18,9 C 69 % 1009,2 hPa 0,0 l/m 2 min 0 min 471 W/m 12,9 km/h (3 Bft) 100,00 %
31.07.2021 15:18 21,6 C 23,9 C 19,5 C 69 % 1009,2 hPa 0,0 l/m 2 min 0 min 1013 W/m 19,3 km/h (3 Bft) 100,00 %
31.07.2021 15:20 21,9 C 23,9 C 19,5 C 68 % 1009,2 hPa 0,0 l/m 2 min 0 min 1049 W/m 19,3 km/h (3 Bft) 100,00 %
31.07.2021 15:22 21,9 C 22,8 C 19,5 C 68 % 1009,4 hPa 0,0 l/m 2 min 0 min 454 W/m 22,5 km/h (4 Bft) 100,00 %
31.07.2021 15:24 21,9 C 22,8 C 19,5 C 67 % 1009,2 hPa 0,0 l/m 0 min 0 min 292 W/m 9,7 km/h (2 Bft) 100,00 %
31.07.2021 15:26 21,9 C 22,2 C 19,5 C 68 % 1009,3 hPa 0,0 l/m 0 min 0 min 259 W/m 19,3 km/h (3 Bft) 100,00 %
31.07.2021 15:28 21,8 C 21,7 C 19,5 C 67 % 1009,3 hPa 0,0 l/m 0 min 0 min 227 W/m 19,3 km/h (3 Bft) 100,00 %
31.07.2021 15:30 21,7 C 21,7 C 19,5 C 67 % 1009,2 hPa 0,0 l/m 0 min 0 min 208 W/m 12,9 km/h (3 Bft) 100,00 %
31.07.2021 15:32 21,5 C 21,1 C 18,9 C 66 % 1009,3 hPa 0,0 l/m 0 min 0 min 212 W/m 32,2 km/h (5 Bft) 100,00 %
31.07.2021 15:34 21,3 C 20,6 C 18,4 C 67 % 1009,4 hPa 0,0 l/m 0 min 0 min 196 W/m 19,3 km/h (3 Bft) 100,00 %
31.07.2021 15:36 21,2 C 20,6 C 18,4 C 67 % 1009,4 hPa 0,0 l/m 0 min 0 min 183 W/m 16,1 km/h (3 Bft) 100,00 %
31.07.2021 15:38 21,0 C 20,6 C 17,8 C 68 % 1009,4 hPa 0,0 l/m 0 min 0 min 198 W/m 19,3 km/h (3 Bft) 100,00 %
31.07.2021 15:40 20,8 C 20,6 C 17,8 C 68 % 1009,4 hPa 0,0 l/m 0 min 0 min 263 W/m 16,1 km/h (3 Bft) 100,00 %
31.07.2021 15:42 20,8 C 21,7 C 17,8 C 69 % 1009,4 hPa 0,0 l/m 0 min 0 min 295 W/m 12,9 km/h (3 Bft) 97,87 %
31.07.2021 15:44 20,9 C 22,2 C 18,4 C 69 % 1009,3 hPa 0,0 l/m 0 min 0 min 295 W/m 9,7 km/h (2 Bft) 100,00 %
31.07.2021 15:46 21,1 C 23,3 C 18,9 C 69 % 1009,4 hPa 0,0 l/m 0 min 0 min 295 W/m 16,1 km/h (3 Bft) 100,00 %
31.07.2021 15:48 21,3 C 24,4 C 18,9 C 68 % 1009,4 hPa 0,0 l/m 2 min 0 min 850 W/m 12,9 km/h (3 Bft) 100,00 %
31.07.2021 15:50 21,5 C 25,6 C 19,5 C 69 % 1009,3 hPa 0,0 l/m 2 min 0 min 827 W/m 12,9 km/h (3 Bft) 100,00 %
31.07.2021 15:52 21,8 C 25,6 C 19,5 C 67 % 1009,3 hPa 0,0 l/m 2 min 0 min 799 W/m 19,3 km/h (3 Bft) 97,83 %
31.07.2021 15:54 22,0 C 25,0 C 19,5 C 65 % 1009,3 hPa 0,0 l/m 2 min 0 min 799 W/m 19,3 km/h (3 Bft) 100,00 %
31.07.2021 15:56 22,1 C 25,6 C 19,5 C 66 % 1009,3 hPa 0,0 l/m 2 min 0 min 804 W/m 16,1 km/h (3 Bft) 97,87 %
31.07.2021 15:58 22,3 C 25,6 C 19,5 C 66 % 1009,3 hPa 0,0 l/m 2 min 0 min 751 W/m 19,3 km/h (3 Bft) 100,00 %
31.07.2021 16:00 22,4 C 26,1 C 19,5 C 67 % 1009,3 hPa 0,0 l/m 2 min 0 min 809 W/m 12,9 km/h (3 Bft) 100,00 %
31.07.2021 16:02 22,6 C 26,1 C 19,5 C 66 % 1009,3 hPa 0,0 l/m 2 min 0 min 832 W/m 12,9 km/h (3 Bft) 100,00 %
31.07.2021 16:04 22,8 C 25,0 C 19,5 C 65 % 1009,3 hPa 0,0 l/m 2 min 0 min 464 W/m 12,9 km/h (3 Bft) 97,83 %
31.07.2021 16:06 22,9 C 25,0 C 19,5 C 64 % 1009,3 hPa 0,0 l/m 2 min 0 min 417 W/m 6,4 km/h (2 Bft) 97,87 %
31.07.2021 16:08 22,9 C 25,6 C 20,0 C 65 % 1009,3 hPa 0,0 l/m 2 min 0 min 416 W/m 19,3 km/h (3 Bft) 97,56 %
31.07.2021 16:10 22,9 C 25,0 C 20,0 C 64 % 1009,3 hPa 0,0 l/m 2 min 0 min 425 W/m 19,3 km/h (3 Bft) 97,87 %
31.07.2021 16:12 22,9 C 24,4 C 20,0 C 63 % 1009,2 hPa 0,0 l/m 2 min 0 min 656 W/m 16,1 km/h (3 Bft) 97,87 %
31.07.2021 16:14 22,8 C 23,3 C 20,0 C 63 % 1009,2 hPa 0,0 l/m 2 min 0 min 555 W/m 16,1 km/h (3 Bft) 95,74 %
31.07.2021 16:16 22,7 C 22,8 C 19,5 C 63 % 1009,2 hPa 0,0 l/m 0 min 0 min 339 W/m 22,5 km/h (4 Bft) 97,87 %
31.07.2021 16:18 22,6 C 22,8 C 19,5 C 63 % 1009,2 hPa 0,0 l/m 0 min 0 min 333 W/m 25,7 km/h (4 Bft) 97,83 %
31.07.2021 16:20 22,5 C 22,2 C 19,5 C 63 % 1009,2 hPa 0,0 l/m 0 min 0 min 314 W/m 16,1 km/h (3 Bft) 95,74 %
31.07.2021 16:22 22,4 C 22,2 C 19,5 C 65 % 1009,3 hPa 0,0 l/m 0 min 0 min 311 W/m 16,1 km/h (3 Bft) 97,87 %
31.07.2021 16:24 22,3 C 22,2 C 19,5 C 65 % 1009,4 hPa 0,0 l/m 0 min 0 min 284 W/m 16,1 km/h (3 Bft) 97,92 %
31.07.2021 16:26 22,3 C 22,2 C 19,5 C 65 % 1009,3 hPa 0,0 l/m 0 min 0 min 286 W/m 19,3 km/h (3 Bft) 97,87 %
31.07.2021 16:28 22,1 C 22,2 C 19,5 C 65 % 1009,3 hPa 0,0 l/m 0 min 0 min 287 W/m 25,7 km/h (4 Bft) 97,87 %
31.07.2021 16:30 22,0 C 22,2 C 19,5 C 65 % 1009,3 hPa 0,0 l/m 0 min 0 min 287 W/m 22,5 km/h (4 Bft) 97,83 %
31.07.2021 16:32 21,9 C 22,2 C 19,5 C 66 % 1009,3 hPa 0,0 l/m 0 min 0 min 296 W/m 12,9 km/h (3 Bft) 95,74 %
31.07.2021 16:34 21,9 C 22,2 C 19,5 C 66 % 1009,2 hPa 0,0 l/m 2 min 0 min 328 W/m 12,9 km/h (3 Bft) 97,87 %
31.07.2021 16:36 21,9 C 22,2 C 19,5 C 67 % 1009,2 hPa 0,0 l/m 2 min 0 min 338 W/m 12,9 km/h (3 Bft) 97,87 %
31.07.2021 16:38 22,0 C 22,2 C 19,5 C 67 % 1009,3 hPa 0,0 l/m 0 min 0 min 323 W/m 9,7 km/h (2 Bft) 97,92 %
31.07.2021 16:40 22,0 C 22,8 C 19,5 C 67 % 1009,2 hPa 0,0 l/m 2 min 0 min 327 W/m 12,9 km/h (3 Bft) 97,87 %
31.07.2021 16:42 22,1 C 25,0 C 20,0 C 67 % 1009,2 hPa 0,0 l/m 2 min 0 min 327 W/m 9,7 km/h (2 Bft) 97,83 %
31.07.2021 16:44 22,2 C 25,0 C 20,0 C 67 % 1009,2 hPa 0,0 l/m 2 min 0 min 334 W/m 19,3 km/h (3 Bft) 97,87 %
31.07.2021 16:46 22,3 C 24,4 C 20,0 C 65 % 1009,2 hPa 0,0 l/m 2 min 0 min 370 W/m 25,7 km/h (4 Bft) 97,87 %
31.07.2021 16:48 22,4 C 23,9 C 20,0 C 65 % 1009,2 hPa 0,0 l/m 2 min 0 min 362 W/m 12,9 km/h (3 Bft) 100,00 %
31.07.2021 16:50 22,4 C 22,8 C 19,5 C 64 % 1009,2 hPa 0,0 l/m 0 min 0 min 308 W/m 19,3 km/h (3 Bft) 100,00 %
31.07.2021 16:52 22,3 C 22,8 C 19,5 C 64 % 1009,2 hPa 0,0 l/m 0 min 0 min 276 W/m 25,7 km/h (4 Bft) 100,00 %
31.07.2021 16:54 22,3 C 22,2 C 19,5 C 63 % 1009,2 hPa 0,0 l/m 0 min 0 min 251 W/m 16,1 km/h (3 Bft) 97,83 %
31.07.2021 16:56 22,2 C 22,8 C 19,5 C 63 % 1009,3 hPa 0,0 l/m 2 min 0 min 350 W/m 19,3 km/h (3 Bft) 97,87 %
31.07.2021 16:58 22,1 C 22,8 C 19,5 C 63 % 1009,3 hPa 0,0 l/m 2 min 0 min 324 W/m 16,1 km/h (3 Bft) 95,74 %
31.07.2021 17:00 22,1 C 22,8 C 19,5 C 63 % 1009,2 hPa 0,0 l/m 0 min 0 min 297 W/m 12,9 km/h (3 Bft) 97,87 %
31.07.2021 17:02 22,2 C 23,3 C 19,5 C 64 % 1009,2 hPa 0,0 l/m 2 min 0 min 334 W/m 12,9 km/h (3 Bft) 97,92 %
31.07.2021 17:04 22,3 C 23,3 C 19,5 C 64 % 1009,3 hPa 0,0 l/m 2 min 0 min 336 W/m 12,9 km/h (3 Bft) 98,08 %
31.07.2021 17:06 22,4 C 23,3 C 19,5 C 64 % 1009,3 hPa 0,0 l/m 0 min 0 min 297 W/m 12,9 km/h (3 Bft) 97,87 %
31.07.2021 17:08 22,3 C 22,8 C 19,5 C 63 % 1009,2 hPa 0,0 l/m 0 min 0 min 253 W/m 19,3 km/h (3 Bft) 95,74 %
31.07.2021 17:10 22,3 C 22,8 C 19,5 C 63 % 1009,2 hPa 0,0 l/m 0 min 0 min 245 W/m 19,3 km/h (3 Bft) 97,87 %
31.07.2021 17:12 22,3 C 22,8 C 19,5 C 64 % 1009,1 hPa 0,0 l/m 0 min 0 min 270 W/m 16,1 km/h (3 Bft) 97,87 %
31.07.2021 17:14 22,3 C 23,3 C 19,5 C 64 % 1009,1 hPa 0,0 l/m 2 min 0 min 319 W/m 16,1 km/h (3 Bft) 97,87 %
31.07.2021 17:16 22,3 C 22,8 C 19,5 C 64 % 1009,1 hPa 0,0 l/m 0 min 0 min 221 W/m 16,1 km/h (3 Bft) 97,83 %
31.07.2021 17:18 22,2 C 22,2 C 19,5 C 64 % 1009,2 hPa 0,0 l/m 0 min 0 min 168 W/m 12,9 km/h (3 Bft) 95,74 %
31.07.2021 17:20 22,2 C 22,2 C 19,5 C 65 % 1009,3 hPa 0,0 l/m 0 min 0 min 147 W/m 12,9 km/h (3 Bft) 95,74 %
31.07.2021 17:22 22,1 C 21,7 C 18,9 C 65 % 1009,2 hPa 0,0 l/m 0 min 0 min 142 W/m 22,5 km/h (4 Bft) 95,74 %
31.07.2021 17:24 22,0 C 21,7 C 18,9 C 64 % 1009,3 hPa 0,0 l/m 0 min 0 min 147 W/m 16,1 km/h (3 Bft) 97,87 %
31.07.2021 17:26 21,9 C 21,1 C 18,9 C 64 % 1009,3 hPa 0,0 l/m 0 min 0 min 153 W/m 19,3 km/h (3 Bft) 97,83 %
31.07.2021 17:28 21,9 C 21,1 C 18,9 C 65 % 1009,4 hPa 0,0 l/m 0 min 0 min 162 W/m 12,9 km/h (3 Bft) 95,74 %
31.07.2021 17:30 21,8 C 21,1 C 18,9 C 65 % 1009,3 hPa 0,0 l/m 0 min 0 min 171 W/m 16,1 km/h (3 Bft) 97,87 %
31.07.2021 17:32 21,8 C 21,1 C 18,9 C 65 % 1009,3 hPa 0,0 l/m 0 min 0 min 165 W/m 19,3 km/h (3 Bft) 95,74 %
31.07.2021 17:34 21,8 C 21,1 C 18,9 C 65 % 1009,3 hPa 0,0 l/m 0 min 0 min 125 W/m 12,9 km/h (3 Bft) 97,87 %
31.07.2021 17:36 21,7 C 21,1 C 18,9 C 65 % 1009,3 hPa 0,0 l/m 0 min 0 min 92 W/m 12,9 km/h (3 Bft) 97,87 %
31.07.2021 17:38 21,6 C 21,1 C 18,4 C 65 % 1009,3 hPa 0,0 l/m 0 min 0 min 96 W/m 19,3 km/h (3 Bft) 95,74 %
31.07.2021 17:40 21,6 C 21,1 C 18,4 C 65 % 1009,3 hPa 0,0 l/m 0 min 0 min 124 W/m 16,1 km/h (3 Bft) 97,83 %
31.07.2021 17:42 21,5 C 21,1 C 18,4 C 65 % 1009,3 hPa 0,0 l/m 0 min 0 min 153 W/m 16,1 km/h (3 Bft) 93,62 %
31.07.2021 17:44 21,5 C 21,1 C 18,9 C 65 % 1009,3 hPa 0,0 l/m 0 min 0 min 172 W/m 16,1 km/h (3 Bft) 95,74 %
31.07.2021 17:46 21,5 C 21,1 C 18,9 C 66 % 1009,3 hPa 0,0 l/m 0 min 0 min 175 W/m 16,1 km/h (3 Bft) 95,74 %
31.07.2021 17:48 21,5 C 21,7 C 18,9 C 66 % 1009,3 hPa 0,0 l/m 0 min 0 min 189 W/m 12,9 km/h (3 Bft) 95,74 %
31.07.2021 17:50 21,5 C 23,9 C 18,9 C 66 % 1009,3 hPa 0,0 l/m 2 min 0 min 417 W/m 16,1 km/h (3 Bft) 95,74 %
31.07.2021 17:52 21,7 C 25,0 C 19,5 C 66 % 1009,2 hPa 0,0 l/m 2 min 0 min 663 W/m 16,1 km/h (3 Bft) 95,65 %
31.07.2021 17:54 21,9 C 25,6 C 20,0 C 66 % 1009,3 hPa 0,0 l/m 2 min 0 min 653 W/m 19,3 km/h (3 Bft) 97,87 %
31.07.2021 17:56 22,1 C 26,1 C 20,0 C 65 % 1009,2 hPa 0,0 l/m 2 min 0 min 627 W/m 9,7 km/h (2 Bft) 97,87 %
31.07.2021 17:58 22,3 C 27,2 C 20,0 C 65 % 1009,1 hPa 0,0 l/m 2 min 0 min 586 W/m 12,9 km/h (3 Bft) 97,87 %
31.07.2021 18:00 22,5 C 27,2 C 20,6 C 65 % 1009,2 hPa 0,0 l/m 2 min 0 min 549 W/m 19,3 km/h (3 Bft) 97,87 %
31.07.2021 18:02 22,6 C 27,2 C 20,6 C 64 % 1009,2 hPa 0,0 l/m 2 min 0 min 523 W/m 12,9 km/h (3 Bft) 97,83 %
31.07.2021 18:04 22,6 C 26,7 C 20,0 C 63 % 1009,2 hPa 0,0 l/m 2 min 0 min 506 W/m 16,1 km/h (3 Bft) 95,74 %
31.07.2021 18:08 22,6 C 26,1 C 20,0 C 63 % 1009,2 hPa 0,0 l/m 4 min 0 min 455 W/m 22,5 km/h (4 Bft) 96,88 %
31.07.2021 18:10 22,7 C 25,0 C 20,0 C 63 % 1009,2 hPa 0,0 l/m 2 min 0 min 469 W/m 12,9 km/h (3 Bft) 97,87 %
31.07.2021 18:12 22,7 C 25,0 C 20,0 C 62 % 1009,2 hPa 0,0 l/m 2 min 0 min 326 W/m 16,1 km/h (3 Bft) 97,14 %
31.07.2021 18:14 22,6 C 25,6 C 20,0 C 62 % 1009,2 hPa 0,0 l/m 2 min 0 min 408 W/m 12,9 km/h (3 Bft) 97,87 %
31.07.2021 18:16 22,7 C 25,6 C 20,0 C 63 % 1009,2 hPa 0,0 l/m 2 min 0 min 498 W/m 16,1 km/h (3 Bft) 96,55 %
31.07.2021 18:18 22,6 C 24,4 C 20,0 C 62 % 1009,2 hPa 0,0 l/m 2 min 0 min 454 W/m 19,3 km/h (3 Bft) 100,00 %
31.07.2021 18:20 22,7 C 25,6 C 20,0 C 63 % 1009,2 hPa 0,0 l/m 2 min 0 min 515 W/m 6,4 km/h (2 Bft) 95,74 %
31.07.2021 18:22 22,8 C 25,6 C 20,0 C 63 % 1009,2 hPa 0,0 l/m 2 min 0 min 503 W/m 16,1 km/h (3 Bft) 96,61 %
31.07.2021 18:24 22,9 C 25,6 C 20,0 C 64 % 1009,1 hPa 0,0 l/m 2 min 0 min 504 W/m 6,4 km/h (2 Bft) 97,87 %
31.07.2021 18:26 22,9 C 24,4 C 20,6 C 63 % 1009,1 hPa 0,0 l/m 2 min 0 min 330 W/m 16,1 km/h (3 Bft) 97,14 %
31.07.2021 18:28 22,9 C 25,0 C 20,0 C 63 % 1009,1 hPa 0,0 l/m 2 min 0 min 349 W/m 6,4 km/h (2 Bft) 97,83 %
31.07.2021 18:30 22,9 C 24,4 C 20,0 C 62 % 1009,1 hPa 0,0 l/m 2 min 0 min 241 W/m 12,9 km/h (3 Bft) 98,04 %
31.07.2021 18:32 22,9 C 24,4 C 20,0 C 62 % 1009,1 hPa 0,0 l/m 2 min 0 min 225 W/m 16,1 km/h (3 Bft) 95,74 %
31.07.2021 18:34 22,8 C 23,9 C 20,0 C 62 % 1009,0 hPa 0,0 l/m 2 min 0 min 231 W/m 12,9 km/h (3 Bft) 93,62 %
31.07.2021 18:36 22,7 C 22,8 C 19,5 C 61 % 1009,0 hPa 0,0 l/m 0 min 0 min 154 W/m 22,5 km/h (4 Bft) 95,74 %
31.07.2021 18:38 22,6 C 22,2 C 19,5 C 61 % 1009,1 hPa 0,0 l/m 0 min 0 min 141 W/m 19,3 km/h (3 Bft) 95,74 %
31.07.2021 18:40 22,4 C 22,2 C 19,5 C 62 % 1009,0 hPa 0,0 l/m 0 min 0 min 132 W/m 12,9 km/h (3 Bft) 97,83 %
31.07.2021 18:42 22,4 C 21,7 C 18,9 C 63 % 1009,1 hPa 0,0 l/m 0 min 0 min 145 W/m 9,7 km/h (2 Bft) 97,87 %
31.07.2021 18:44 22,3 C 21,7 C 18,9 C 63 % 1009,1 hPa 0,0 l/m 0 min 0 min 143 W/m 9,7 km/h (2 Bft) 97,87 %
31.07.2021 18:46 22,2 C 21,7 C 18,9 C 63 % 1009,1 hPa 0,0 l/m 0 min 0 min 127 W/m 6,4 km/h (2 Bft) 96,30 %
31.07.2021 18:48 22,1 C 21,7 C 18,9 C 63 % 1009,1 hPa 0,0 l/m 0 min 0 min 127 W/m 12,9 km/h (3 Bft) 97,87 %
31.07.2021 18:50 22,0 C 21,1 C 18,9 C 64 % 1009,1 hPa 0,0 l/m 0 min 0 min 128 W/m 6,4 km/h (2 Bft) 95,65 %
31.07.2021 18:52 22,0 C 21,1 C 18,9 C 64 % 1009,1 hPa 0,0 l/m 0 min 0 min 130 W/m 6,4 km/h (2 Bft) 97,87 %
31.07.2021 18:54 22,0 C 21,1 C 18,9 C 65 % 1009,1 hPa 0,0 l/m 0 min 0 min 132 W/m 12,9 km/h (3 Bft) 97,87 %
31.07.2021 18:56 22,0 C 21,1 C 18,9 C 65 % 1009,1 hPa 0,0 l/m 0 min 0 min 133 W/m 12,9 km/h (3 Bft) 97,87 %
31.07.2021 18:58 21,9 C 21,1 C 18,9 C 65 % 1009,0 hPa 0,0 l/m 0 min 0 min 134 W/m 9,7 km/h (2 Bft) 97,87 %
31.07.2021 19:00 21,9 C 21,1 C 18,9 C 66 % 1009,1 hPa 0,0 l/m 0 min 0 min 133 W/m 9,7 km/h (2 Bft) 97,83 %
31.07.2021 19:02 21,8 C 21,1 C 18,9 C 66 % 1009,1 hPa 0,0 l/m 0 min 0 min 134 W/m 9,7 km/h (2 Bft) 97,92 %
31.07.2021 19:04 21,8 C 22,2 C 18,9 C 66 % 1009,1 hPa 0,0 l/m 2 min 0 min 201 W/m 16,1 km/h (3 Bft) 95,74 %
31.07.2021 19:06 21,8 C 22,8 C 18,9 C 66 % 1009,1 hPa 0,0 l/m 2 min 0 min 282 W/m 6,4 km/h (2 Bft) 97,87 %
31.07.2021 19:08 21,8 C 22,2 C 18,9 C 66 % 1009,1 hPa 0,0 l/m 2 min 0 min 213 W/m 16,1 km/h (3 Bft) 95,74 %
31.07.2021 19:10 21,8 C 22,2 C 18,9 C 66 % 1009,1 hPa 0,0 l/m 0 min 0 min 151 W/m 9,7 km/h (2 Bft) 97,87 %
31.07.2021 19:12 21,8 C 22,2 C 18,9 C 67 % 1009,1 hPa 0,0 l/m 0 min 0 min 130 W/m 9,7 km/h (2 Bft) 93,48 %
31.07.2021 19:14 21,8 C 21,7 C 18,9 C 66 % 1009,1 hPa 0,0 l/m 0 min 0 min 120 W/m 6,4 km/h (2 Bft) 93,62 %
31.07.2021 19:16 21,8 C 21,1 C 18,9 C 66 % 1009,1 hPa 0,0 l/m 0 min 0 min 114 W/m 12,9 km/h (3 Bft) 87,23 %
31.07.2021 19:18 21,8 C 21,1 C 18,9 C 66 % 1009,1 hPa 0,0 l/m 0 min 0 min 108 W/m 12,9 km/h (3 Bft) 89,36 %
31.07.2021 19:20 21,8 C 21,1 C 18,9 C 66 % 1009,1 hPa 0,0 l/m 0 min 0 min 97 W/m 16,1 km/h (3 Bft) 93,62 %
31.07.2021 19:22 21,7 C 21,1 C 18,9 C 66 % 1009,2 hPa 0,0 l/m 0 min 0 min 80 W/m 16,1 km/h (3 Bft) 95,74 %
31.07.2021 19:24 21,6 C 21,1 C 18,4 C 66 % 1009,2 hPa 0,0 l/m 0 min 0 min 62 W/m 9,7 km/h (2 Bft) 100,00 %
31.07.2021 19:26 21,6 C 20,6 C 18,4 C 66 % 1009,2 hPa 0,0 l/m 0 min 0 min 52 W/m 6,4 km/h (2 Bft) 97,87 %
31.07.2021 19:28 21,5 C 20,6 C 18,4 C 66 % 1009,2 hPa 0,0 l/m 0 min 0 min 52 W/m 12,9 km/h (3 Bft) 97,87 %
31.07.2021 19:30 21,5 C 20,6 C 18,4 C 66 % 1009,2 hPa 0,0 l/m 0 min 0 min 57 W/m 12,9 km/h (3 Bft) 94,29 %
31.07.2021 19:32 21,5 C 20,6 C 18,4 C 66 % 1009,3 hPa 0,0 l/m 0 min 0 min 56 W/m 16,1 km/h (3 Bft) 96,61 %
31.07.2021 19:34 21,4 C 20,6 C 18,4 C 66 % 1009,2 hPa 0,0 l/m 0 min 0 min 54 W/m 6,4 km/h (2 Bft) 97,87 %
31.07.2021 19:36 21,4 C 20,6 C 18,4 C 66 % 1009,2 hPa 0,0 l/m 0 min 0 min 54 W/m 16,1 km/h (3 Bft) 97,83 %
31.07.2021 19:38 21,3 C 20,6 C 18,4 C 66 % 1009,2 hPa 0,0 l/m 0 min 0 min 54 W/m 9,7 km/h (2 Bft) 97,87 %
31.07.2021 19:40 21,3 C 20,6 C 18,4 C 67 % 1009,2 hPa 0,0 l/m 0 min 0 min 55 W/m 9,7 km/h (2 Bft) 91,49 %
31.07.2021 19:42 21,3 C 20,6 C 18,4 C 67 % 1009,3 hPa 0,0 l/m 0 min 0 min 60 W/m 12,9 km/h (3 Bft) 97,87 %
31.07.2021 19:44 21,3 C 20,6 C 17,8 C 67 % 1009,2 hPa 0,0 l/m 0 min 0 min 69 W/m 12,9 km/h (3 Bft) 100,00 %
31.07.2021 19:46 21,1 C 20,6 C 17,8 C 67 % 1009,2 hPa 0,0 l/m 0 min 0 min 85 W/m 12,9 km/h (3 Bft) 100,00 %
31.07.2021 19:48 21,1 C 20,6 C 17,8 C 67 % 1009,1 hPa 0,0 l/m 2 min 0 min 108 W/m 12,9 km/h (3 Bft) 100,00 %
31.07.2021 19:50 21,1 C 20,6 C 17,8 C 67 % 1009,2 hPa 0,0 l/m 2 min 0 min 117 W/m 16,1 km/h (3 Bft) 100,00 %
31.07.2021 19:52 21,1 C 20,6 C 17,8 C 67 % 1009,2 hPa 0,0 l/m 2 min 0 min 123 W/m 12,9 km/h (3 Bft) 97,87 %
31.07.2021 19:54 21,1 C 20,6 C 17,8 C 67 % 1009,1 hPa 0,0 l/m 2 min 0 min 111 W/m 9,7 km/h (2 Bft) 100,00 %
31.07.2021 19:56 21,1 C 20,6 C 17,8 C 68 % 1009,1 hPa 0,0 l/m 0 min 0 min 95 W/m 9,7 km/h (2 Bft) 100,00 %
31.07.2021 19:58 21,0 C 20,6 C 17,8 C 69 % 1009,1 hPa 0,0 l/m 0 min 0 min 81 W/m 6,4 km/h (2 Bft) 100,00 %
31.07.2021 20:00 21,0 C 20,6 C 17,8 C 69 % 1009,2 hPa 0,0 l/m 0 min 0 min 71 W/m 6,4 km/h (2 Bft) 100,00 %
31.07.2021 20:02 21,0 C 20,6 C 17,8 C 69 % 1009,2 hPa 0,0 l/m 0 min 0 min 63 W/m 6,4 km/h (2 Bft) 100,00 %
31.07.2021 20:04 21,0 C 20,6 C 17,8 C 69 % 1009,3 hPa 0,0 l/m 0 min 0 min 57 W/m 12,9 km/h (3 Bft) 100,00 %
31.07.2021 20:06 21,0 C 20,0 C 17,8 C 69 % 1009,2 hPa 0,0 l/m 0 min 0 min 56 W/m 6,4 km/h (2 Bft) 97,87 %
31.07.2021 20:08 21,0 C 20,0 C 17,8 C 70 % 1009,3 hPa 0,0 l/m 0 min 0 min 56 W/m 6,4 km/h (2 Bft) 100,00 %
31.07.2021 20:10 20,9 C 20,0 C 17,8 C 70 % 1009,3 hPa 0,0 l/m 0 min 0 min 58 W/m 6,4 km/h (2 Bft) 100,00 %
31.07.2021 20:12 20,9 C 20,0 C 17,3 C 70 % 1009,3 hPa 0,0 l/m 0 min 0 min 54 W/m 6,4 km/h (2 Bft) 100,00 %
31.07.2021 20:14 20,9 C 20,0 C 17,3 C 71 % 1009,4 hPa 0,0 l/m 0 min 0 min 47 W/m 6,4 km/h (2 Bft) 97,87 %
31.07.2021 20:16 20,8 C 20,0 C 17,3 C 71 % 1009,3 hPa 0,0 l/m 0 min 0 min 41 W/m 3,2 km/h (1 Bft) 100,00 %
31.07.2021 20:18 20,8 C 19,4 C 17,3 C 71 % 1009,4 hPa 0,0 l/m 0 min 0 min 36 W/m 6,4 km/h (2 Bft) 100,00 %
31.07.2021 20:20 20,7 C 19,4 C 17,3 C 71 % 1009,4 hPa 0,0 l/m 0 min 0 min 30 W/m 6,4 km/h (2 Bft) 100,00 %
31.07.2021 20:22 20,6 C 19,4 C 17,3 C 71 % 1009,5 hPa 0,0 l/m 0 min 0 min 26 W/m 3,2 km/h (1 Bft) 97,87 %
31.07.2021 20:24 20,6 C 19,4 C 17,3 C 71 % 1009,5 hPa 0,0 l/m 0 min 0 min 23 W/m 3,2 km/h (1 Bft) 97,87 %
31.07.2021 20:26 20,5 C 19,4 C 17,3 C 72 % 1009,5 hPa 0,0 l/m 0 min 0 min 19 W/m 6,4 km/h (2 Bft) 97,87 %
31.07.2021 20:28 20,5 C 19,4 C 17,3 C 72 % 1009,5 hPa 0,0 l/m 0 min 0 min 15 W/m 3,2 km/h (1 Bft) 97,83 %
31.07.2021 20:30 20,4 C 19,4 C 17,3 C 72 % 1009,5 hPa 0,0 l/m 0 min 0 min 11 W/m 3,2 km/h (1 Bft) 97,87 %
31.07.2021 20:32 20,4 C 19,4 C 17,3 C 72 % 1009,5 hPa 0,0 l/m 0 min 0 min 9 W/m 3,2 km/h (1 Bft) 97,87 %
31.07.2021 20:34 20,4 C 19,4 C 17,3 C 72 % 1009,5 hPa 0,0 l/m 0 min 0 min 9 W/m 3,2 km/h (1 Bft) 95,74 %
31.07.2021 20:36 20,4 C 19,4 C 17,3 C 72 % 1009,5 hPa 0,0 l/m 0 min 0 min 10 W/m 6,4 km/h (2 Bft) 97,87 %
31.07.2021 20:38 20,4 C 19,4 C 17,3 C 73 % 1009,5 hPa 0,0 l/m 0 min 0 min 11 W/m 3,2 km/h (1 Bft) 97,87 %
31.07.2021 20:40 20,3 C 19,4 C 16,7 C 73 % 1009,5 hPa 0,0 l/m 0 min 0 min 9 W/m 3,2 km/h (1 Bft) 95,74 %
31.07.2021 20:42 20,3 C 19,4 C 16,7 C 73 % 1009,5 hPa 0,0 l/m 0 min 0 min 7 W/m 0,0 km/h (0 Bft) 93,62 %
31.07.2021 20:44 20,3 C 19,4 C 16,7 C 74 % 1009,5 hPa 0,0 l/m 0 min 0 min 6 W/m 0,0 km/h (0 Bft) 97,87 %
31.07.2021 20:46 20,3 C 19,4 C 16,7 C 74 % 1009,5 hPa 0,0 l/m 0 min 0 min 5 W/m 0,0 km/h (0 Bft) 97,87 %
31.07.2021 20:48 20,3 C 18,9 C 16,7 C 74 % 1009,5 hPa 0,0 l/m 0 min 2 min 4 W/m 0,0 km/h (0 Bft) 97,87 %
31.07.2021 20:50 20,3 C 18,9 C 16,7 C 75 % 1009,5 hPa 0,0 l/m 0 min 2 min 0 W/m 0,0 km/h (0 Bft) 97,83 %
31.07.2021 20:52 20,3 C 18,9 C 15,6 C 76 % 1009,7 hPa 0,2 l/m 0 min 2 min 0 W/m 41,8 km/h (6 Bft) 95,74 %
31.07.2021 20:54 20,0 C 16,1 C 14,5 C 78 % 1009,8 hPa 1,2 l/m 0 min 2 min 0 W/m 25,7 km/h (4 Bft) 93,62 %
31.07.2021 20:56 19,7 C 15,6 C 13,9 C 79 % 1009,7 hPa 1,2 l/m 0 min 2 min 0 W/m 6,4 km/h (2 Bft) 93,62 %
31.07.2021 20:58 19,6 C 16,1 C 13,9 C 81 % 1009,6 hPa 0,4 l/m 0 min 2 min 0 W/m 3,2 km/h (1 Bft) 95,83 %
31.07.2021 21:00 19,5 C 16,1 C 13,9 C 82 % 1009,5 hPa 0,0 l/m 0 min 2 min 0 W/m 3,2 km/h (1 Bft) 95,74 %
31.07.2021 21:02 19,4 C 16,1 C 13,9 C 83 % 1009,5 hPa 0,0 l/m 0 min 2 min 0 W/m 3,2 km/h (1 Bft) 91,30 %
31.07.2021 21:04 19,4 C 16,1 C 13,9 C 84 % 1009,5 hPa 0,0 l/m 0 min 0 min 0 W/m 6,4 km/h (2 Bft) 91,49 %
31.07.2021 21:06 19,2 C 16,1 C 13,9 C 85 % 1009,6 hPa 0,2 l/m 0 min 2 min 0 W/m 9,7 km/h (2 Bft) 85,11 %
31.07.2021 21:08 19,0 C 16,1 C 13,9 C 86 % 1009,6 hPa 0,6 l/m 0 min 2 min 0 W/m 6,4 km/h (2 Bft) 89,36 %
31.07.2021 21:10 18,9 C 15,6 C 13,9 C 86 % 1009,7 hPa 0,0 l/m 0 min 2 min 1 W/m 9,7 km/h (2 Bft) 95,74 %
31.07.2021 21:12 18,7 C 16,1 C 13,9 C 86 % 1009,8 hPa 0,0 l/m 0 min 0 min 6 W/m 16,1 km/h (3 Bft) 95,74 %
31.07.2021 21:14 18,4 C 16,1 C 13,9 C 87 % 1009,8 hPa 0,0 l/m 0 min 2 min 11 W/m 16,1 km/h (3 Bft) 95,65 %
31.07.2021 21:16 18,3 C 15,6 C 13,9 C 87 % 1009,8 hPa 0,0 l/m 0 min 2 min 13 W/m 12,9 km/h (3 Bft) 93,62 %
31.07.2021 21:18 18,1 C 15,6 C 13,9 C 88 % 1009,8 hPa 0,0 l/m 0 min 2 min 14 W/m 16,1 km/h (3 Bft) 93,75 %
31.07.2021 21:20 18,0 C 15,6 C 13,9 C 88 % 1009,8 hPa 0,0 l/m 0 min 2 min 14 W/m 6,4 km/h (2 Bft) 93,62 %
31.07.2021 21:22 17,9 C 16,1 C 13,9 C 89 % 1009,8 hPa 0,0 l/m 0 min 0 min 11 W/m 9,7 km/h (2 Bft) 93,62 %
31.07.2021 21:24 17,8 C 15,6 C 13,9 C 89 % 1009,8 hPa 0,0 l/m 0 min 2 min 8 W/m 6,4 km/h (2 Bft) 91,30 %
31.07.2021 21:26 17,7 C 16,1 C 13,9 C 89 % 1009,8 hPa 0,0 l/m 0 min 2 min 3 W/m 6,4 km/h (2 Bft) 93,62 %
31.07.2021 21:28 17,6 C 15,6 C 13,9 C 89 % 1009,8 hPa 0,2 l/m 0 min 2 min 0 W/m 6,4 km/h (2 Bft) 93,62 %
31.07.2021 21:30 17,5 C 15,6 C 13,9 C 89 % 1009,8 hPa 0,0 l/m 0 min 2 min 0 W/m 6,4 km/h (2 Bft) 93,62 %
31.07.2021 21:32 17,5 C 15,6 C 13,9 C 89 % 1009,8 hPa 0,0 l/m 0 min 2 min 0 W/m 6,4 km/h (2 Bft) 93,62 %
31.07.2021 21:34 17,4 C 15,6 C 13,9 C 90 % 1009,8 hPa 0,0 l/m 0 min 0 min 0 W/m 6,4 km/h (2 Bft) 95,74 %
31.07.2021 21:36 17,4 C 15,6 C 13,9 C 90 % 1009,8 hPa 0,0 l/m 0 min 0 min 0 W/m 3,2 km/h (1 Bft) 95,74 %
31.07.2021 21:38 17,4 C 15,6 C 13,9 C 90 % 1009,8 hPa 0,0 l/m 0 min 0 min 0 W/m 3,2 km/h (1 Bft) 97,87 %
31.07.2021 21:40 17,3 C 15,6 C 13,9 C 90 % 1009,9 hPa 0,0 l/m 0 min 0 min 0 W/m 0,0 km/h (0 Bft) 97,87 %
31.07.2021 21:42 17,3 C 15,6 C 13,9 C 91 % 1009,9 hPa 0,0 l/m 0 min 0 min 0 W/m 0,0 km/h (0 Bft) 93,62 %
31.07.2021 21:44 17,3 C 15,6 C 13,9 C 91 % 1009,9 hPa 0,0 l/m 0 min 0 min 0 W/m 0,0 km/h (0 Bft) 95,74 %
31.07.2021 21:46 17,3 C 15,6 C 13,9 C 91 % 1009,9 hPa 0,0 l/m 0 min 0 min 0 W/m 0,0 km/h (0 Bft) 95,74 %
31.07.2021 21:48 17,3 C 15,6 C 13,9 C 91 % 1010,0 hPa 0,0 l/m 0 min 0 min 0 W/m 0,0 km/h (0 Bft) 97,83 %
31.07.2021 21:50 17,3 C 15,6 C 13,9 C 91 % 1009,9 hPa 0,0 l/m 0 min 0 min 0 W/m 3,2 km/h (1 Bft) 95,74 %
31.07.2021 21:52 17,3 C 15,6 C 13,9 C 91 % 1010,0 hPa 0,0 l/m 0 min 0 min 0 W/m 0,0 km/h (0 Bft) 97,87 %
31.07.2021 21:54 17,3 C 16,1 C 14,5 C 92 % 1010,0 hPa 0,0 l/m 0 min 0 min 0 W/m 0,0 km/h (0 Bft) 97,87 %
31.07.2021 21:56 17,3 C 16,1 C 14,5 C 92 % 1010,0 hPa 0,0 l/m 0 min 0 min 0 W/m 3,2 km/h (1 Bft) 97,87 %
31.07.2021 21:58 17,3 C 16,1 C 14,5 C 92 % 1010,1 hPa 0,0 l/m 0 min 0 min 0 W/m 0,0 km/h (0 Bft) 95,74 %
31.07.2021 22:00 17,3 C 16,1 C 14,5 C 92 % 1010,1 hPa 0,0 l/m 0 min 0 min 0 W/m 6,4 km/h (2 Bft) 97,83 %
31.07.2021 22:02 17,3 C 16,1 C 14,5 C 92 % 1010,1 hPa 0,0 l/m 0 min 0 min 0 W/m 3,2 km/h (1 Bft) 97,87 %
31.07.2021 22:04 17,3 C 16,1 C 14,5 C 92 % 1010,1 hPa 0,0 l/m 0 min 0 min 0 W/m 3,2 km/h (1 Bft) 97,87 %
31.07.2021 22:06 17,3 C 16,1 C 14,5 C 92 % 1010,1 hPa 0,0 l/m 0 min 0 min 0 W/m 3,2 km/h (1 Bft) 95,74 %
31.07.2021 22:08 17,3 C 16,1 C 14,5 C 93 % 1010,1 hPa 0,0 l/m 0 min 0 min 0 W/m 3,2 km/h (1 Bft) 100,00 %
31.07.2021 22:10 17,3 C 16,1 C 14,5 C 93 % 1010,1 hPa 0,0 l/m 0 min 0 min 0 W/m 3,2 km/h (1 Bft) 100,00 %
31.07.2021 22:12 17,3 C 16,1 C 14,5 C 93 % 1010,0 hPa 0,0 l/m 0 min 0 min 0 W/m 3,2 km/h (1 Bft) 100,00 %
31.07.2021 22:14 17,3 C 16,1 C 14,5 C 93 % 1010,0 hPa 0,0 l/m 0 min 0 min 0 W/m 0,0 km/h (0 Bft) 100,00 %
31.07.2021 22:16 17,2 C 16,1 C 14,5 C 93 % 1010,0 hPa 0,0 l/m 0 min 0 min 0 W/m 0,0 km/h (0 Bft) 100,00 %
31.07.2021 22:18 17,2 C 16,1 C 14,5 C 93 % 1010,0 hPa 0,0 l/m 0 min 0 min 0 W/m 0,0 km/h (0 Bft) 100,00 %
31.07.2021 22:20 17,2 C 16,1 C 14,5 C 93 % 1010,0 hPa 0,0 l/m 0 min 0 min 0 W/m 0,0 km/h (0 Bft) 100,00 %
31.07.2021 22:22 17,2 C 16,1 C 14,5 C 93 % 1010,1 hPa 0,0 l/m 0 min 0 min 0 W/m 0,0 km/h (0 Bft) 100,00 %
31.07.2021 22:24 17,2 C 16,1 C 14,5 C 93 % 1010,1 hPa 0,0 l/m 0 min 0 min 0 W/m 0,0 km/h (0 Bft) 100,00 %
31.07.2021 22:26 17,2 C 16,1 C 14,5 C 93 % 1010,1 hPa 0,0 l/m 0 min 0 min 0 W/m 0,0 km/h (0 Bft) 100,00 %
31.07.2021 22:28 17,2 C 16,1 C 14,5 C 93 % 1010,1 hPa 0,0 l/m 0 min 0 min 0 W/m 0,0 km/h (0 Bft) 100,00 %
31.07.2021 22:30 17,2 C 16,1 C 14,5 C 93 % 1010,1 hPa 0,0 l/m 0 min 0 min 0 W/m 0,0 km/h (0 Bft) 97,87 %
31.07.2021 22:32 17,2 C 16,1 C 14,5 C 93 % 1010,1 hPa 0,0 l/m 0 min 0 min 0 W/m 0,0 km/h (0 Bft) 100,00 %
31.07.2021 22:34 17,2 C 16,1 C 14,5 C 93 % 1010,2 hPa 0,0 l/m 0 min 0 min 0 W/m 0,0 km/h (0 Bft) 100,00 %
31.07.2021 22:36 17,2 C 16,1 C 14,5 C 93 % 1010,1 hPa 0,0 l/m 0 min 0 min 0 W/m 0,0 km/h (0 Bft) 100,00 %
31.07.2021 22:38 17,2 C 16,1 C 14,5 C 94 % 1010,1 hPa 0,0 l/m 0 min 0 min 0 W/m 0,0 km/h (0 Bft) 100,00 %
31.07.2021 22:40 17,2 C 16,1 C 14,5 C 94 % 1010,1 hPa 0,0 l/m 0 min 0 min 0 W/m 0,0 km/h (0 Bft) 100,00 %
31.07.2021 22:42 17,2 C 16,1 C 14,5 C 94 % 1010,1 hPa 0,0 l/m 0 min 0 min 0 W/m 3,2 km/h (1 Bft) 100,00 %
31.07.2021 22:44 17,2 C 16,1 C 14,5 C 94 % 1010,2 hPa 0,0 l/m 0 min 0 min 0 W/m 6,4 km/h (2 Bft) 97,87 %
31.07.2021 22:46 17,2 C 16,1 C 14,5 C 94 % 1010,2 hPa 0,0 l/m 0 min 2 min 0 W/m 9,7 km/h (2 Bft) 100,00 %
31.07.2021 22:48 17,1 C 16,1 C 14,5 C 94 % 1010,2 hPa 0,4 l/m 0 min 2 min 0 W/m 19,3 km/h (3 Bft) 100,00 %
31.07.2021 22:50 17,1 C 15,6 C 14,5 C 94 % 1010,1 hPa 1,2 l/m 0 min 2 min 0 W/m 6,4 km/h (2 Bft) 100,00 %
31.07.2021 22:52 17,0 C 15,0 C 14,5 C 93 % 1010,1 hPa 1,2 l/m 0 min 2 min 0 W/m 12,9 km/h (3 Bft) 100,00 %
31.07.2021 22:54 16,9 C 15,0 C 13,9 C 93 % 1010,1 hPa 0,4 l/m 0 min 2 min 0 W/m 6,4 km/h (2 Bft) 100,00 %
31.07.2021 22:56 16,8 C 15,0 C 13,9 C 93 % 1010,1 hPa 0,4 l/m 0 min 2 min 0 W/m 9,7 km/h (2 Bft) 100,00 %
31.07.2021 22:58 16,7 C 15,0 C 13,9 C 93 % 1010,1 hPa 0,4 l/m 0 min 2 min 0 W/m 3,2 km/h (1 Bft) 100,00 %
31.07.2021 23:00 16,7 C 15,0 C 13,9 C 93 % 1010,1 hPa 0,0 l/m 0 min 2 min 0 W/m 0,0 km/h (0 Bft) 100,00 %
31.07.2021 23:02 16,6 C 15,0 C 13,9 C 93 % 1010,1 hPa 0,0 l/m 0 min 0 min 0 W/m 3,2 km/h (1 Bft) 100,00 %
31.07.2021 23:04 16,6 C 15,0 C 13,9 C 93 % 1010,1 hPa 0,0 l/m 0 min 0 min 0 W/m 6,4 km/h (2 Bft) 100,00 %
31.07.2021 23:06 16,6 C 15,0 C 13,9 C 93 % 1010,1 hPa 0,0 l/m 0 min 2 min 0 W/m 0,0 km/h (0 Bft) 100,00 %
31.07.2021 23:08 16,6 C 15,0 C 13,9 C 93 % 1010,1 hPa 0,0 l/m 0 min 2 min 0 W/m 0,0 km/h (0 Bft) 100,00 %
31.07.2021 23:10 16,6 C 15,0 C 13,9 C 94 % 1010,0 hPa 0,0 l/m 0 min 0 min 0 W/m 0,0 km/h (0 Bft) 100,00 %
31.07.2021 23:12 16,6 C 15,0 C 13,9 C 94 % 1010,0 hPa 0,0 l/m 0 min 0 min 0 W/m 0,0 km/h (0 Bft) 100,00 %
31.07.2021 23:14 16,6 C 15,0 C 13,9 C 94 % 1010,0 hPa 0,0 l/m 0 min 2 min 0 W/m 0,0 km/h (0 Bft) 97,87 %
31.07.2021 23:16 16,6 C 15,0 C 13,9 C 94 % 1010,0 hPa 0,0 l/m 0 min 0 min 0 W/m 3,2 km/h (1 Bft) 97,87 %
31.07.2021 23:18 16,6 C 15,0 C 13,9 C 94 % 1010,1 hPa 0,0 l/m 0 min 0 min 0 W/m 3,2 km/h (1 Bft) 97,87 %
31.07.2021 23:20 16,6 C 15,6 C 13,9 C 94 % 1010,1 hPa 0,0 l/m 0 min 0 min 0 W/m 0,0 km/h (0 Bft) 100,00 %
31.07.2021 23:22 16,6 C 15,0 C 13,9 C 94 % 1010,1 hPa 0,0 l/m 0 min 0 min 0 W/m 0,0 km/h (0 Bft) 100,00 %
31.07.2021 23:24 16,6 C 15,6 C 14,5 C 94 % 1010,1 hPa 0,0 l/m 0 min 0 min 0 W/m 0,0 km/h (0 Bft) 100,00 %
31.07.2021 23:26 16,6 C 15,0 C 14,5 C 94 % 1010,1 hPa 0,0 l/m 0 min 0 min 0 W/m 0,0 km/h (0 Bft) 95,74 %
31.07.2021 23:28 16,6 C 15,0 C 14,5 C 94 % 1010,0 hPa 0,0 l/m 0 min 0 min 0 W/m 3,2 km/h (1 Bft) 97,87 %
31.07.2021 23:30 16,6 C 15,0 C 14,5 C 94 % 1010,1 hPa 0,0 l/m 0 min 0 min 0 W/m 0,0 km/h (0 Bft) 100,00 %
31.07.2021 23:32 16,6 C 15,0 C 14,5 C 94 % 1010,0 hPa 0,0 l/m 0 min 0 min 0 W/m 0,0 km/h (0 Bft) 95,74 %
31.07.2021 23:34 16,6 C 15,0 C 13,9 C 94 % 1010,1 hPa 0,0 l/m 0 min 0 min 0 W/m 0,0 km/h (0 Bft) 97,87 %
31.07.2021 23:36 16,5 C 15,0 C 13,9 C 94 % 1010,1 hPa 0,0 l/m 0 min 0 min 0 W/m 3,2 km/h (1 Bft) 97,83 %
31.07.2021 23:38 16,5 C 15,0 C 13,9 C 94 % 1010,0 hPa 0,0 l/m 0 min 0 min 0 W/m 0,0 km/h (0 Bft) 97,87 %
31.07.2021 23:40 16,5 C 15,0 C 13,9 C 94 % 1010,0 hPa 0,0 l/m 0 min 0 min 0 W/m 0,0 km/h (0 Bft) 97,87 %
31.07.2021 23:42 16,5 C 15,0 C 13,9 C 94 % 1010,1 hPa 0,0 l/m 0 min 0 min 0 W/m 3,2 km/h (1 Bft) 95,74 %
31.07.2021 23:44 16,5 C 15,0 C 13,9 C 95 % 1010,1 hPa 0,0 l/m 0 min 0 min 0 W/m 0,0 km/h (0 Bft) 97,87 %
31.07.2021 23:46 16,5 C 15,0 C 13,9 C 95 % 1010,1 hPa 0,0 l/m 0 min 0 min 0 W/m 3,2 km/h (1 Bft) 97,83 %
31.07.2021 23:48 16,5 C 15,0 C 13,9 C 95 % 1010,1 hPa 0,0 l/m 0 min 0 min 0 W/m 3,2 km/h (1 Bft) 95,74 %
31.07.2021 23:50 16,4 C 15,0 C 13,9 C 95 % 1010,1 hPa 0,0 l/m 0 min 0 min 0 W/m 0,0 km/h (0 Bft) 97,87 %
31.07.2021 23:52 16,4 C 15,0 C 13,9 C 94 % 1010,1 hPa 0,0 l/m 0 min 0 min 0 W/m 3,2 km/h (1 Bft) 97,87 %
31.07.2021 23:54 16,4 C 15,0 C 13,9 C 94 % 1010,1 hPa 0,0 l/m 0 min 0 min 0 W/m 0,0 km/h (0 Bft) 97,87 %
31.07.2021 23:56 16,3 C 15,0 C 13,9 C 94 % 1010,1 hPa 0,0 l/m 0 min 0 min 0 W/m 3,2 km/h (1 Bft) 97,87 %
31.07.2021 23:58 16,3 C 15,0 C 13,9 C 94 % 1010,1 hPa 0,0 l/m 0 min 0 min 0 W/m 3,2 km/h (1 Bft) 97,37 %
_ Min-Zeit 06:12 06:08 05:56 18:36 05:30 - - - - 20:42 03:54
Minimum _ 16,0 C 15,0 C 13,4 C 61 % 1006,4 hPa - - - - 0,0 km/h (0 Bft) 53,49 %
_ Max-Zeit 16:06 17:58 12:34 23:44 22:34 20:54 11:17 20:48 12:16 11:00 00:44
Maximum _ 22,9 C 27,2 C 28,4 C 95 % 1010,2 hPa 1,2 l/m 5 min 2 min 1095 W/m 51,5 km/h
S-SO (7 Bft)
100,00 %
Durchschnitt _ 18,8 C 18,7 C 16,6 C 75 % 1008,3 hPa #8,0 l/m #5:24 h #1:02 h 304 W/m 19,2 km/h (3 Bft) 97,37 %
© 2021 W. Hausmann